Wetterdaten: Sonntag, 20.11.2016
Datum Zeit Temp. A. Feuchte A. Luftdruck Regen Wind Richtung Richtung Sonnenschein ET UV Solar Taupunkt Windchill Windben Empfang
20.11.2016 00:00 3,4 C 95 % 1014,3 hPa 0,0 l/m 8,0 km/h (2 Bft) O-NO 67 0 min 0,000 mm 0,0 UV-I 0 W/m 2,7 C 1,9 C 12,9 km/h (3 Bft) 99,12 %
20.11.2016 00:05 3,4 C 95 % 1014,3 hPa 0,0 l/m 6,4 km/h (2 Bft) O-NO 67 0 min 0,000 mm 0,0 UV-I 0 W/m 2,7 C 3,4 C 12,9 km/h (3 Bft) 56,14 %
20.11.2016 00:10 3,5 C 95 % 1014,1 hPa 0,0 l/m 8,0 km/h (2 Bft) O-NO 67 0 min 0,000 mm 0,0 UV-I 0 W/m 2,8 C 2,0 C 14,5 km/h (3 Bft) 100,00 %
20.11.2016 00:15 3,6 C 95 % 1014,0 hPa 0,0 l/m 8,0 km/h (2 Bft) O-NO 67 0 min 0,000 mm 0,0 UV-I 0 W/m 2,9 C 2,1 C 11,3 km/h (2 Bft) 100,00 %
20.11.2016 00:20 3,6 C 95 % 1013,9 hPa 0,0 l/m 6,4 km/h (2 Bft) O-NO 67 0 min 0,000 mm 0,0 UV-I 0 W/m 2,9 C 3,6 C 12,9 km/h (3 Bft) 100,00 %
20.11.2016 00:25 3,5 C 95 % 1013,9 hPa 0,0 l/m 4,8 km/h (1 Bft) O-NO 67 0 min 0,000 mm 0,0 UV-I 0 W/m 2,8 C 3,5 C 6,4 km/h (2 Bft) 100,00 %
20.11.2016 00:30 3,4 C 94 % 1013,9 hPa 0,0 l/m 4,8 km/h (1 Bft) O-NO 67 0 min 0,000 mm 0,0 UV-I 0 W/m 2,5 C 3,4 C 8,0 km/h (2 Bft) 100,00 %
20.11.2016 00:35 3,1 C 94 % 1013,7 hPa 0,0 l/m 3,2 km/h (1 Bft) O-NO 67 0 min 0,000 mm 0,0 UV-I 0 W/m 2,2 C 3,1 C 6,4 km/h (2 Bft) 100,00 %
20.11.2016 00:40 2,9 C 95 % 1013,6 hPa 0,0 l/m 4,8 km/h (1 Bft) O-NO 67 0 min 0,000 mm 0,0 UV-I 0 W/m 2,2 C 2,9 C 8,0 km/h (2 Bft) 100,00 %
20.11.2016 00:45 3,1 C 95 % 1013,6 hPa 0,0 l/m 4,8 km/h (1 Bft) O-NO 67 0 min 0,000 mm 0,0 UV-I 0 W/m 2,4 C 3,1 C 8,0 km/h (2 Bft) 100,00 %
20.11.2016 00:50 3,2 C 95 % 1013,5 hPa 0,0 l/m 4,8 km/h (1 Bft) O-NO 67 0 min 0,000 mm 0,0 UV-I 0 W/m 2,5 C 3,2 C 11,3 km/h (2 Bft) 100,00 %
20.11.2016 00:55 3,2 C 95 % 1013,6 hPa 0,0 l/m 4,8 km/h (1 Bft) O-NO 67 0 min 0,000 mm 0,0 UV-I 0 W/m 2,5 C 3,2 C 6,4 km/h (2 Bft) 100,00 %
20.11.2016 01:00 3,1 C 95 % 1013,4 hPa 0,0 l/m 4,8 km/h (1 Bft) O-NO 67 0 min 0,000 mm 0,0 UV-I 0 W/m 2,4 C 3,1 C 8,0 km/h (2 Bft) 99,12 %
20.11.2016 01:05 3,0 C 95 % 1013,4 hPa 0,0 l/m 4,8 km/h (1 Bft) O-NO 67 0 min 0,000 mm 0,0 UV-I 0 W/m 2,3 C 3,0 C 8,0 km/h (2 Bft) 98,25 %
20.11.2016 01:10 2,9 C 95 % 1013,3 hPa 0,0 l/m 4,8 km/h (1 Bft) O-NO 67 0 min 0,000 mm 0,0 UV-I 0 W/m 2,2 C 2,9 C 8,0 km/h (2 Bft) 98,25 %
20.11.2016 01:15 2,8 C 95 % 1013,3 hPa 0,0 l/m 4,8 km/h (1 Bft) O-NO 67 0 min 0,000 mm 0,0 UV-I 0 W/m 2,1 C 2,8 C 8,0 km/h (2 Bft) 98,25 %
20.11.2016 01:20 2,7 C 95 % 1013,2 hPa 0,0 l/m 4,8 km/h (1 Bft) NO 45 0 min 0,000 mm 0,0 UV-I 0 W/m 2,0 C 2,7 C 6,4 km/h (2 Bft) 97,37 %
20.11.2016 01:25 2,6 C 95 % 1013,0 hPa 0,0 l/m 3,2 km/h (1 Bft) O-NO 67 0 min 0,000 mm 0,0 UV-I 0 W/m 1,9 C 2,6 C 6,4 km/h (2 Bft) 96,49 %
20.11.2016 01:30 2,4 C 95 % 1013,1 hPa 0,0 l/m 4,8 km/h (1 Bft) O-NO 67 0 min 0,000 mm 0,0 UV-I 0 W/m 1,7 C 2,4 C 8,0 km/h (2 Bft) 98,25 %
20.11.2016 01:35 2,3 C 95 % 1013,1 hPa 0,0 l/m 4,8 km/h (1 Bft) NO 45 0 min 0,000 mm 0,0 UV-I 0 W/m 1,6 C 2,3 C 6,4 km/h (2 Bft) 98,25 %
20.11.2016 01:40 2,1 C 96 % 1013,0 hPa 0,0 l/m 4,8 km/h (1 Bft) NO 45 0 min 0,000 mm 0,0 UV-I 0 W/m 1,5 C 2,1 C 6,4 km/h (2 Bft) 97,37 %
20.11.2016 01:45 2,2 C 96 % 1013,0 hPa 0,0 l/m 4,8 km/h (1 Bft) NO 45 0 min 0,000 mm 0,0 UV-I 0 W/m 1,6 C 2,2 C 6,4 km/h (2 Bft) 100,00 %
20.11.2016 01:50 2,2 C 96 % 1012,9 hPa 0,0 l/m 4,8 km/h (1 Bft) O-NO 67 0 min 0,000 mm 0,0 UV-I 0 W/m 1,6 C 2,2 C 6,4 km/h (2 Bft) 100,00 %
20.11.2016 01:55 2,2 C 96 % 1013,0 hPa 0,0 l/m 4,8 km/h (1 Bft) NO 45 0 min 0,000 mm 0,0 UV-I 0 W/m 1,6 C 2,2 C 6,4 km/h (2 Bft) 100,00 %
20.11.2016 02:00 2,2 C 96 % 1013,0 hPa 0,0 l/m 4,8 km/h (1 Bft) NO 45 0 min 0,000 mm 0,0 UV-I 0 W/m 1,6 C 2,2 C 8,0 km/h (2 Bft) 100,00 %
20.11.2016 02:05 2,2 C 96 % 1012,9 hPa 0,0 l/m 4,8 km/h (1 Bft) NO 45 0 min 0,000 mm 0,0 UV-I 0 W/m 1,6 C 2,2 C 8,0 km/h (2 Bft) 100,00 %
20.11.2016 02:10 2,2 C 96 % 1012,8 hPa 0,0 l/m 6,4 km/h (2 Bft) NO 45 0 min 0,000 mm 0,0 UV-I 0 W/m 1,6 C 2,2 C 9,7 km/h (2 Bft) 100,00 %
20.11.2016 02:15 2,2 C 97 % 1012,7 hPa 0,0 l/m 6,4 km/h (2 Bft) O-NO 67 0 min 0,000 mm 0,0 UV-I 0 W/m 1,8 C 2,2 C 9,7 km/h (2 Bft) 99,12 %
20.11.2016 02:20 2,2 C 97 % 1012,7 hPa 0,0 l/m 4,8 km/h (1 Bft) O-NO 67 0 min 0,000 mm 0,0 UV-I 0 W/m 1,8 C 2,2 C 9,7 km/h (2 Bft) 100,00 %
20.11.2016 02:25 2,1 C 96 % 1012,6 hPa 0,0 l/m 6,4 km/h (2 Bft) O-NO 67 0 min 0,000 mm 0,0 UV-I 0 W/m 1,5 C 2,1 C 8,0 km/h (2 Bft) 100,00 %
20.11.2016 02:30 2,1 C 97 % 1012,5 hPa 0,0 l/m 6,4 km/h (2 Bft) O-NO 67 0 min 0,000 mm 0,0 UV-I 0 W/m 1,7 C 2,1 C 11,3 km/h (2 Bft) 100,00 %
20.11.2016 02:35 2,3 C 97 % 1012,4 hPa 0,0 l/m 6,4 km/h (2 Bft) O-NO 67 0 min 0,000 mm 0,0 UV-I 0 W/m 1,9 C 2,3 C 14,5 km/h (3 Bft) 100,00 %
20.11.2016 02:40 2,4 C 97 % 1012,4 hPa 0,0 l/m 4,8 km/h (1 Bft) O-NO 67 0 min 0,000 mm 0,0 UV-I 0 W/m 2,0 C 2,4 C 12,9 km/h (3 Bft) 100,00 %
20.11.2016 02:45 1,9 C 96 % 1012,4 hPa 0,0 l/m 3,2 km/h (1 Bft) NO 45 0 min 0,000 mm 0,0 UV-I 0 W/m 1,3 C 1,9 C 4,8 km/h (1 Bft) 100,00 %
20.11.2016 02:50 1,9 C 97 % 1012,3 hPa 0,0 l/m 3,2 km/h (1 Bft) NO 45 0 min 0,000 mm 0,0 UV-I 0 W/m 1,5 C 1,9 C 6,4 km/h (2 Bft) 97,37 %
20.11.2016 02:55 1,9 C 97 % 1012,2 hPa 0,0 l/m 4,8 km/h (1 Bft) O-NO 67 0 min 0,000 mm 0,0 UV-I 0 W/m 1,5 C 1,9 C 8,0 km/h (2 Bft) 100,00 %
20.11.2016 03:00 2,0 C 97 % 1012,1 hPa 0,0 l/m 6,4 km/h (2 Bft) O-NO 67 0 min 0,000 mm 0,0 UV-I 0 W/m 1,6 C 2,0 C 8,0 km/h (2 Bft) 100,00 %
20.11.2016 03:05 2,0 C 97 % 1012,1 hPa 0,0 l/m 4,8 km/h (1 Bft) NO 45 0 min 0,000 mm 0,0 UV-I 0 W/m 1,6 C 2,0 C 6,4 km/h (2 Bft) 99,12 %
20.11.2016 03:10 1,9 C 97 % 1012,0 hPa 0,0 l/m 4,8 km/h (1 Bft) O-NO 67 0 min 0,000 mm 0,0 UV-I 0 W/m 1,5 C 1,9 C 8,0 km/h (2 Bft) 100,00 %
20.11.2016 03:15 1,9 C 97 % 1012,1 hPa 0,0 l/m 4,8 km/h (1 Bft) O-NO 67 0 min 0,000 mm 0,0 UV-I 0 W/m 1,5 C 1,9 C 6,4 km/h (2 Bft) 98,25 %
20.11.2016 03:20 1,9 C 97 % 1012,0 hPa 0,0 l/m 4,8 km/h (1 Bft) O-NO 67 0 min 0,000 mm 0,0 UV-I 0 W/m 1,5 C 1,9 C 9,7 km/h (2 Bft) 96,49 %
20.11.2016 03:25 1,9 C 97 % 1012,0 hPa 0,0 l/m 6,4 km/h (2 Bft) O-NO 67 0 min 0,000 mm 0,0 UV-I 0 W/m 1,5 C 1,9 C 8,0 km/h (2 Bft) 97,37 %
20.11.2016 03:30 2,0 C 97 % 1011,9 hPa 0,0 l/m 4,8 km/h (1 Bft) NO 45 0 min 0,000 mm 0,0 UV-I 0 W/m 1,6 C 2,0 C 9,7 km/h (2 Bft) 98,25 %
20.11.2016 03:35 1,8 C 97 % 1011,8 hPa 0,0 l/m 4,8 km/h (1 Bft) O-NO 67 0 min 0,000 mm 0,0 UV-I 0 W/m 1,4 C 1,8 C 8,0 km/h (2 Bft) 98,25 %
20.11.2016 03:40 1,8 C 98 % 1011,6 hPa 0,0 l/m 4,8 km/h (1 Bft) NO 45 0 min 0,000 mm 0,0 UV-I 0 W/m 1,5 C 1,8 C 8,0 km/h (2 Bft) 95,61 %
20.11.2016 03:45 1,8 C 97 % 1011,6 hPa 0,0 l/m 4,8 km/h (1 Bft) NO 45 0 min 0,000 mm 0,0 UV-I 0 W/m 1,4 C 1,8 C 8,0 km/h (2 Bft) 97,37 %
20.11.2016 03:50 1,8 C 98 % 1011,4 hPa 0,0 l/m 6,4 km/h (2 Bft) O-NO 67 0 min 0,000 mm 0,0 UV-I 0 W/m 1,5 C 1,8 C 9,7 km/h (2 Bft) 99,12 %
20.11.2016 03:55 1,8 C 98 % 1011,4 hPa 0,0 l/m 6,4 km/h (2 Bft) O-NO 67 0 min 0,000 mm 0,0 UV-I 0 W/m 1,5 C 1,8 C 9,7 km/h (2 Bft) 99,12 %
20.11.2016 04:00 1,6 C 98 % 1011,3 hPa 0,0 l/m 4,8 km/h (1 Bft) O-NO 67 0 min 0,000 mm 0,0 UV-I 0 W/m 1,3 C 1,6 C 8,0 km/h (2 Bft) 98,25 %
20.11.2016 04:05 1,6 C 98 % 1011,2 hPa 0,0 l/m 6,4 km/h (2 Bft) O-NO 67 0 min 0,000 mm 0,0 UV-I 0 W/m 1,3 C 1,6 C 9,7 km/h (2 Bft) 100,00 %
20.11.2016 04:10 1,6 C 98 % 1011,1 hPa 0,0 l/m 6,4 km/h (2 Bft) O-NO 67 0 min 0,000 mm 0,0 UV-I 0 W/m 1,3 C 1,6 C 11,3 km/h (2 Bft) 100,00 %
20.11.2016 04:15 1,7 C 98 % 1011,1 hPa 0,0 l/m 8,0 km/h (2 Bft) O-NO 67 0 min 0,000 mm 0,0 UV-I 0 W/m 1,4 C 0,1 C 12,9 km/h (3 Bft) 100,00 %
20.11.2016 04:20 1,7 C 98 % 1011,1 hPa 0,0 l/m 6,4 km/h (2 Bft) O-NO 67 0 min 0,000 mm 0,0 UV-I 0 W/m 1,4 C 1,7 C 11,3 km/h (2 Bft) 99,12 %
20.11.2016 04:25 1,6 C 98 % 1011,0 hPa 0,0 l/m 6,4 km/h (2 Bft) NO 45 0 min 0,000 mm 0,0 UV-I 0 W/m 1,3 C 1,6 C 9,7 km/h (2 Bft) 100,00 %
20.11.2016 04:30 1,6 C 98 % 1010,9 hPa 0,0 l/m 6,4 km/h (2 Bft) NO 45 0 min 0,000 mm 0,0 UV-I 0 W/m 1,3 C 1,6 C 12,9 km/h (3 Bft) 99,12 %
20.11.2016 04:35 1,7 C 98 % 1010,8 hPa 0,0 l/m 8,0 km/h (2 Bft) O-NO 67 0 min 0,000 mm 0,0 UV-I 0 W/m 1,4 C 0,1 C 14,5 km/h (3 Bft) 99,12 %
20.11.2016 04:40 1,7 C 98 % 1010,7 hPa 0,0 l/m 6,4 km/h (2 Bft) O-NO 67 0 min 0,000 mm 0,0 UV-I 0 W/m 1,4 C 1,7 C 9,7 km/h (2 Bft) 100,00 %
20.11.2016 04:45 1,8 C 98 % 1010,7 hPa 0,0 l/m 4,8 km/h (1 Bft) NO 45 0 min 0,000 mm 0,0 UV-I 0 W/m 1,5 C 1,8 C 11,3 km/h (2 Bft) 99,12 %
20.11.2016 04:50 1,7 C 98 % 1010,6 hPa 0,0 l/m 8,0 km/h (2 Bft) NO 45 0 min 0,000 mm 0,0 UV-I 0 W/m 1,4 C 0,1 C 12,9 km/h (3 Bft) 99,12 %
20.11.2016 04:55 1,8 C 98 % 1010,5 hPa 0,0 l/m 8,0 km/h (2 Bft) NO 45 0 min 0,000 mm 0,0 UV-I 0 W/m 1,5 C 0,2 C 12,9 km/h (3 Bft) 100,00 %
20.11.2016 05:00 2,0 C 98 % 1010,5 hPa 0,0 l/m 8,0 km/h (2 Bft) O-NO 67 0 min 0,000 mm 0,0 UV-I 0 W/m 1,7 C 0,5 C 14,5 km/h (3 Bft) 100,00 %
20.11.2016 05:05 2,1 C 98 % 1010,5 hPa 0,0 l/m 6,4 km/h (2 Bft) NO 45 0 min 0,000 mm 0,0 UV-I 0 W/m 1,8 C 2,1 C 12,9 km/h (3 Bft) 100,00 %
20.11.2016 05:10 2,1 C 98 % 1010,5 hPa 0,0 l/m 8,0 km/h (2 Bft) NO 45 0 min 0,000 mm 0,0 UV-I 0 W/m 1,8 C 0,6 C 16,1 km/h (3 Bft) 98,25 %
20.11.2016 05:15 2,2 C 98 % 1010,4 hPa 0,0 l/m 8,0 km/h (2 Bft) NO 45 0 min 0,000 mm 0,0 UV-I 0 W/m 1,9 C 0,7 C 16,1 km/h (3 Bft) 100,00 %
20.11.2016 05:20 2,2 C 98 % 1010,4 hPa 0,0 l/m 8,0 km/h (2 Bft) O-NO 67 0 min 0,000 mm 0,0 UV-I 0 W/m 1,9 C 0,7 C 14,5 km/h (3 Bft) 97,37 %
20.11.2016 05:25 2,2 C 98 % 1010,2 hPa 0,0 l/m 8,0 km/h (2 Bft) NO 45 0 min 0,000 mm 0,0 UV-I 0 W/m 1,9 C 0,7 C 16,1 km/h (3 Bft) 97,37 %
20.11.2016 05:30 2,2 C 98 % 1010,3 hPa 0,0 l/m 8,0 km/h (2 Bft) NO 45 0 min 0,000 mm 0,0 UV-I 0 W/m 1,9 C 0,7 C 11,3 km/h (2 Bft) 97,37 %
20.11.2016 05:35 2,3 C 98 % 1010,3 hPa 0,0 l/m 8,0 km/h (2 Bft) NO 45 0 min 0,000 mm 0,0 UV-I 0 W/m 2,0 C 0,8 C 16,1 km/h (3 Bft) 98,25 %
20.11.2016 05:40 2,3 C 98 % 1010,4 hPa 0,0 l/m 8,0 km/h (2 Bft) NO 45 0 min 0,000 mm 0,0 UV-I 0 W/m 2,0 C 0,8 C 14,5 km/h (3 Bft) 97,37 %
20.11.2016 05:45 2,3 C 98 % 1010,4 hPa 0,0 l/m 9,7 km/h (2 Bft) NO 45 0 min 0,000 mm 0,0 UV-I 0 W/m 2,0 C -0,7 C 16,1 km/h (3 Bft) 97,37 %
20.11.2016 05:50 2,4 C 98 % 1010,4 hPa 0,0 l/m 8,0 km/h (2 Bft) NO 45 0 min 0,000 mm 0,0 UV-I 0 W/m 2,1 C 0,9 C 16,1 km/h (3 Bft) 98,25 %
20.11.2016 05:55 2,4 C 97 % 1010,4 hPa 0,0 l/m 6,4 km/h (2 Bft) NO 45 0 min 0,000 mm 0,0 UV-I 0 W/m 2,0 C 2,4 C 12,9 km/h (3 Bft) 100,00 %
20.11.2016 06:00 2,1 C 97 % 1010,4 hPa 0,0 l/m 4,8 km/h (1 Bft) N-NO 22 0 min 0,000 mm 0,0 UV-I 0 W/m 1,7 C 2,1 C 11,3 km/h (2 Bft) 99,12 %
20.11.2016 06:05 1,8 C 97 % 1010,4 hPa 0,0 l/m 4,8 km/h (1 Bft) N-NO 22 0 min 0,000 mm 0,0 UV-I 0 W/m 1,4 C 1,8 C 8,0 km/h (2 Bft) 99,12 %
20.11.2016 06:10 1,5 C 97 % 1010,6 hPa 0,0 l/m 1,6 km/h (1 Bft) N-NO 22 0 min 0,000 mm 0,0 UV-I 0 W/m 1,1 C 1,5 C 4,8 km/h (1 Bft) 100,00 %
20.11.2016 06:15 1,5 C 97 % 1010,5 hPa 0,0 l/m 1,6 km/h (1 Bft) N-NO 22 0 min 0,000 mm 0,0 UV-I 0 W/m 1,1 C 1,5 C 4,8 km/h (1 Bft) 99,12 %
20.11.2016 06:20 1,5 C 97 % 1010,6 hPa 0,0 l/m 1,6 km/h (1 Bft) N-NO 22 0 min 0,000 mm 0,0 UV-I 0 W/m 1,1 C 1,5 C 4,8 km/h (1 Bft) 99,12 %
20.11.2016 06:25 1,4 C 97 % 1010,7 hPa 0,0 l/m 1,6 km/h (1 Bft) N-NO 22 0 min 0,000 mm 0,0 UV-I 0 W/m 1,0 C 1,4 C 3,2 km/h (1 Bft) 100,00 %
20.11.2016 06:30 1,4 C 97 % 1010,7 hPa 0,0 l/m 0,0 km/h (0 Bft) N-NO 22 0 min 0,000 mm 0,0 UV-I 0 W/m 1,0 C 1,4 C 3,2 km/h (1 Bft) 100,00 %
20.11.2016 06:35 1,3 C 98 % 1010,7 hPa 0,0 l/m 0,0 km/h (0 Bft) N-NO 22 0 min 0,000 mm 0,0 UV-I 0 W/m 1,0 C 1,3 C 1,6 km/h (1 Bft) 100,00 %
20.11.2016 06:40 1,3 C 98 % 1010,6 hPa 0,0 l/m 1,6 km/h (1 Bft) N-NO 22 0 min 0,000 mm 0,0 UV-I 0 W/m 1,0 C 1,3 C 3,2 km/h (1 Bft) 99,12 %
20.11.2016 06:45 1,4 C 98 % 1010,7 hPa 0,0 l/m 1,6 km/h (1 Bft) N-NO 22 0 min 0,000 mm 0,0 UV-I 0 W/m 1,1 C 1,4 C 1,6 km/h (1 Bft) 100,00 %
20.11.2016 06:50 1,3 C 98 % 1010,7 hPa 0,0 l/m 0,0 km/h (0 Bft) N-NO 22 0 min 0,000 mm 0,0 UV-I 0 W/m 1,0 C 1,3 C 1,6 km/h (1 Bft) 100,00 %
20.11.2016 06:55 1,1 C 97 % 1010,7 hPa 0,0 l/m 0,0 km/h (0 Bft) N-NO 22 0 min 0,000 mm 0,0 UV-I 0 W/m 0,7 C 1,1 C 1,6 km/h (1 Bft) 100,00 %
20.11.2016 07:00 1,0 C 98 % 1010,8 hPa 0,0 l/m 1,6 km/h (1 Bft) N-NO 22 0 min 0,000 mm 0,0 UV-I 0 W/m 0,7 C 1,0 C 3,2 km/h (1 Bft) 100,00 %
20.11.2016 07:05 1,0 C 98 % 1010,9 hPa 0,0 l/m 1,6 km/h (1 Bft) N-NO 22 0 min 0,000 mm 0,0 UV-I 0 W/m 0,7 C 1,0 C 4,8 km/h (1 Bft) 98,25 %
20.11.2016 07:10 1,0 C 98 % 1010,7 hPa 0,0 l/m 0,0 km/h (0 Bft) N-NO 22 0 min 0,000 mm 0,0 UV-I 4 W/m 0,7 C 1,0 C 3,2 km/h (1 Bft) 97,37 %
20.11.2016 07:15 0,9 C 98 % 1010,8 hPa 0,0 l/m 1,6 km/h (1 Bft) SO 135 0 min 0,000 mm 0,0 UV-I 12 W/m 0,6 C 0,9 C 4,8 km/h (1 Bft) 99,12 %
20.11.2016 07:20 0,8 C 98 % 1010,7 hPa 0,0 l/m 1,6 km/h (1 Bft) S-SO 157 0 min 0,000 mm 0,0 UV-I 11 W/m 0,5 C 0,8 C 4,8 km/h (1 Bft) 100,00 %
20.11.2016 07:25 0,7 C 98 % 1010,8 hPa 0,0 l/m 3,2 km/h (1 Bft) S 180 0 min 0,000 mm 0,0 UV-I 7 W/m 0,4 C 0,7 C 6,4 km/h (2 Bft) 97,37 %
20.11.2016 07:30 0,5 C 98 % 1010,7 hPa 0,0 l/m 1,6 km/h (1 Bft) S 180 5 min 0,000 mm 0,0 UV-I 9 W/m 0,2 C 0,5 C 4,8 km/h (1 Bft) 97,37 %
20.11.2016 07:35 0,4 C 98 % 1010,7 hPa 0,0 l/m 1,6 km/h (1 Bft) S-SO 157 0 min 0,000 mm 0,0 UV-I 11 W/m 0,1 C 0,4 C 4,8 km/h (1 Bft) 98,25 %
20.11.2016 07:40 0,4 C 98 % 1010,8 hPa 0,0 l/m 3,2 km/h (1 Bft) S-SO 157 0 min 0,000 mm 0,0 UV-I 12 W/m 0,1 C 0,4 C 6,4 km/h (2 Bft) 97,37 %
20.11.2016 07:45 0,3 C 98 % 1010,7 hPa 0,0 l/m 1,6 km/h (1 Bft) S 180 0 min 0,000 mm 0,0 UV-I 13 W/m 0,0 C 0,3 C 6,4 km/h (2 Bft) 96,49 %
20.11.2016 07:50 0,3 C 98 % 1010,7 hPa 0,0 l/m 1,6 km/h (1 Bft) S 180 0 min 0,000 mm 0,0 UV-I 15 W/m 0,0 C 0,3 C 6,4 km/h (2 Bft) 98,25 %
20.11.2016 07:55 0,2 C 98 % 1010,7 hPa 0,0 l/m 1,6 km/h (1 Bft) S 180 0 min 0,000 mm 0,0 UV-I 18 W/m -0,1 C 0,2 C 6,4 km/h (2 Bft) 98,25 %
20.11.2016 08:00 0,2 C 98 % 1010,9 hPa 0,0 l/m 3,2 km/h (1 Bft) S 180 0 min 0,000 mm 0,0 UV-I 20 W/m -0,1 C 0,2 C 8,0 km/h (2 Bft) 98,25 %
20.11.2016 08:05 0,1 C 98 % 1011,0 hPa 0,0 l/m 3,2 km/h (1 Bft) SW 225 0 min 0,000 mm 0,0 UV-I 23 W/m -0,2 C 0,1 C 6,4 km/h (2 Bft) 99,12 %
20.11.2016 08:10 0,1 C 98 % 1011,0 hPa 0,0 l/m 4,8 km/h (1 Bft) S-SW 202 0 min 0,000 mm 0,0 UV-I 28 W/m -0,2 C 0,1 C 11,3 km/h (2 Bft) 100,00 %
20.11.2016 08:15 0,1 C 98 % 1011,0 hPa 0,0 l/m 3,2 km/h (1 Bft) S-SW 202 0 min 0,000 mm 0,0 UV-I 39 W/m -0,2 C 0,1 C 8,0 km/h (2 Bft) 100,00 %
20.11.2016 08:20 0,1 C 98 % 1010,9 hPa 0,0 l/m 3,2 km/h (1 Bft) S-SW 202 0 min 0,000 mm 0,0 UV-I 54 W/m -0,2 C 0,1 C 6,4 km/h (2 Bft) 100,00 %
20.11.2016 08:25 0,2 C 98 % 1010,7 hPa 0,0 l/m 1,6 km/h (1 Bft) S-SW 202 0 min 0,000 mm 0,0 UV-I 53 W/m -0,1 C 0,2 C 4,8 km/h (1 Bft) 100,00 %
20.11.2016 08:30 0,2 C 98 % 1010,7 hPa 0,0 l/m 1,6 km/h (1 Bft) S 180 0 min 0,000 mm 0,0 UV-I 54 W/m -0,1 C 0,2 C 6,4 km/h (2 Bft) 100,00 %
20.11.2016 08:38 0,3 C 98 % 1010,7 hPa 0,0 l/m 2,0 km/h (1 Bft) S 169 0 min 0,000 mm 0,0 UV-I 57 W/m 0,0 C 0,3 C 6,4 km/h (2 Bft) 100,00 %
20.11.2016 08:40 0,3 C 98 % 1010,7 hPa 0,0 l/m 2,1 km/h (1 Bft) S 169 0 min 0,000 mm 0,0 UV-I 58 W/m 0,0 C 0,3 C 3,2 km/h (1 Bft) 100,00 %
20.11.2016 08:42 0,2 C 98 % 1010,7 hPa 0,0 l/m 3,4 km/h (1 Bft) S-SW 198 0 min 0,000 mm 0,0 UV-I 60 W/m -0,1 C 0,2 C 4,8 km/h (1 Bft) 100,00 %
20.11.2016 08:44 0,2 C 98 % 1010,9 hPa 0,0 l/m 3,8 km/h (1 Bft) SW 215 0 min 0,000 mm 0,0 UV-I 56 W/m -0,1 C 0,2 C 4,8 km/h (1 Bft) 97,37 %
20.11.2016 08:46 0,3 C 98 % 1010,9 hPa 0,0 l/m 4,6 km/h (1 Bft) SW 215 0 min 0,000 mm 0,0 UV-I 56 W/m 0,0 C 0,3 C 6,4 km/h (2 Bft) 98,04 %
20.11.2016 08:48 0,2 C 98 % 1010,9 hPa 0,0 l/m 2,9 km/h (1 Bft) SW 215 0 min 0,000 mm 0,0 UV-I 56 W/m -0,1 C 0,2 C 4,8 km/h (1 Bft) 100,00 %
20.11.2016 08:50 0,2 C 98 % 1011,0 hPa 0,0 l/m 2,5 km/h (1 Bft) SW 215 0 min 0,000 mm 0,0 UV-I 58 W/m -0,1 C 0,2 C 4,8 km/h (1 Bft) 94,34 %
20.11.2016 08:52 0,3 C 98 % 1011,0 hPa 0,0 l/m 4,1 km/h (1 Bft) SW 236 0 min 0,000 mm 0,0 UV-I 65 W/m 0,0 C 0,3 C 6,4 km/h (2 Bft) 97,56 %
20.11.2016 08:54 0,2 C 98 % 1011,0 hPa 0,0 l/m 5,5 km/h (1 Bft) W-SW 237 0 min 0,000 mm 0,0 UV-I 65 W/m -0,1 C 0,2 C 6,4 km/h (2 Bft) 98,00 %
20.11.2016 08:56 0,2 C 98 % 1011,0 hPa 0,0 l/m 3,1 km/h (1 Bft) W-SW 238 0 min 0,000 mm 0,0 UV-I 69 W/m -0,1 C 0,2 C 4,8 km/h (1 Bft) 95,12 %
20.11.2016 08:58 0,2 C 98 % 1011,0 hPa 0,0 l/m 3,0 km/h (1 Bft) W-SW 237 0 min 0,000 mm 0,0 UV-I 82 W/m -0,1 C 0,2 C 4,8 km/h (1 Bft) 98,00 %
20.11.2016 09:00 0,3 C 98 % 1011,0 hPa 0,0 l/m 1,6 km/h (1 Bft) W-SW 237 0 min 0,025 mm 0,0 UV-I 79 W/m 0,0 C 0,3 C 4,8 km/h (1 Bft) 98,00 %
20.11.2016 09:02 0,3 C 98 % 1010,9 hPa 0,0 l/m 3,6 km/h (1 Bft) W-SW 237 0 min 0,000 mm 0,0 UV-I 76 W/m 0,0 C 0,3 C 6,4 km/h (2 Bft) 93,62 %
20.11.2016 09:04 0,3 C 98 % 1010,8 hPa 0,0 l/m 1,6 km/h (1 Bft) W-SW 237 0 min 0,000 mm 0,0 UV-I 77 W/m 0,0 C 0,3 C 3,2 km/h (1 Bft) 97,37 %
20.11.2016 09:06 0,3 C 98 % 1010,7 hPa 0,0 l/m 0,9 km/h (0 Bft) W-SW 237 0 min 0,000 mm 0,0 UV-I 74 W/m 0,0 C 0,3 C 3,2 km/h (1 Bft) 98,25 %
20.11.2016 09:08 0,3 C 98 % 1010,6 hPa 0,0 l/m 2,1 km/h (1 Bft) W-SW 237 0 min 0,000 mm 0,0 UV-I 72 W/m 0,0 C 0,3 C 4,8 km/h (1 Bft) 95,12 %
20.11.2016 09:10 0,3 C 98 % 1010,7 hPa 0,0 l/m 2,1 km/h (1 Bft) W-SW 237 0 min 0,000 mm 0,0 UV-I 72 W/m 0,0 C 0,3 C 4,8 km/h (1 Bft) 98,11 %
20.11.2016 09:12 0,3 C 98 % 1010,6 hPa 0,0 l/m 2,2 km/h (1 Bft) W-SW 237 0 min 0,000 mm 0,0 UV-I 69 W/m 0,0 C 0,3 C 4,8 km/h (1 Bft) 97,37 %
20.11.2016 09:14 0,3 C 98 % 1010,7 hPa 0,0 l/m 0,4 km/h (0 Bft) W-SW 237 0 min 0,000 mm 0,0 UV-I 67 W/m 0,0 C 0,3 C 1,6 km/h (1 Bft) 97,87 %
20.11.2016 09:16 0,3 C 98 % 1010,6 hPa 0,0 l/m 1,5 km/h (1 Bft) S-SW 209 0 min 0,000 mm 0,0 UV-I 65 W/m 0,0 C 0,3 C 3,2 km/h (1 Bft) 94,64 %
20.11.2016 09:18 0,3 C 98 % 1010,6 hPa 0,0 l/m 2,1 km/h (1 Bft) S-SW 208 0 min 0,000 mm 0,0 UV-I 63 W/m 0,0 C 0,3 C 4,8 km/h (1 Bft) 97,22 %
20.11.2016 09:20 0,3 C 98 % 1010,6 hPa 0,0 l/m 1,2 km/h (1 Bft) S-SW 208 0 min 0,000 mm 0,0 UV-I 62 W/m 0,0 C 0,3 C 3,2 km/h (1 Bft) 96,36 %
20.11.2016 09:22 0,3 C 98 % 1010,6 hPa 0,0 l/m 2,4 km/h (1 Bft) S-SW 208 0 min 0,000 mm 0,0 UV-I 59 W/m 0,0 C 0,3 C 3,2 km/h (1 Bft) 100,00 %
20.11.2016 09:24 0,3 C 98 % 1010,7 hPa 0,0 l/m 2,4 km/h (1 Bft) S-SW 208 0 min 0,000 mm 0,0 UV-I 56 W/m 0,0 C 0,3 C 3,2 km/h (1 Bft) 100,00 %
20.11.2016 09:26 0,3 C 98 % 1010,7 hPa 0,0 l/m 1,9 km/h (1 Bft) S-SW 208 0 min 0,000 mm 0,0 UV-I 56 W/m 0,0 C 0,3 C 3,2 km/h (1 Bft) 100,00 %
20.11.2016 09:28 0,3 C 98 % 1010,8 hPa 0,0 l/m 2,9 km/h (1 Bft) S-SW 208 0 min 0,000 mm 0,0 UV-I 56 W/m 0,0 C 0,3 C 4,8 km/h (1 Bft) 100,00 %
20.11.2016 09:30 0,3 C 98 % 1010,7 hPa 0,0 l/m 2,8 km/h (1 Bft) S 184 0 min 0,000 mm 0,0 UV-I 56 W/m 0,0 C 0,3 C 4,8 km/h (1 Bft) 100,00 %
20.11.2016 09:32 0,3 C 98 % 1010,8 hPa 0,0 l/m 1,9 km/h (1 Bft) S 184 0 min 0,000 mm 0,0 UV-I 56 W/m 0,0 C 0,3 C 3,2 km/h (1 Bft) 100,00 %
20.11.2016 09:34 0,3 C 98 % 1010,8 hPa 0,0 l/m 2,1 km/h (1 Bft) S 184 0 min 0,000 mm 0,0 UV-I 56 W/m 0,0 C 0,3 C 3,2 km/h (1 Bft) 100,00 %
20.11.2016 09:36 0,3 C 98 % 1010,9 hPa 0,0 l/m 1,0 km/h (0 Bft) S 184 0 min 0,000 mm 0,0 UV-I 58 W/m 0,0 C 0,3 C 3,2 km/h (1 Bft) 100,00 %
20.11.2016 09:38 0,3 C 98 % 1010,9 hPa 0,0 l/m 3,4 km/h (1 Bft) S-SW 201 0 min 0,000 mm 0,0 UV-I 57 W/m 0,0 C 0,3 C 4,8 km/h (1 Bft) 100,00 %
20.11.2016 09:40 0,3 C 98 % 1010,9 hPa 0,0 l/m 3,0 km/h (1 Bft) S-SW 201 0 min 0,000 mm 0,0 UV-I 58 W/m 0,0 C 0,3 C 3,2 km/h (1 Bft) 98,00 %
20.11.2016 09:42 0,3 C 98 % 1010,9 hPa 0,0 l/m 2,2 km/h (1 Bft) S-SW 196 0 min 0,000 mm 0,0 UV-I 60 W/m 0,0 C 0,3 C 4,8 km/h (1 Bft) 100,00 %
20.11.2016 09:44 0,3 C 98 % 1010,8 hPa 0,0 l/m 2,5 km/h (1 Bft) S 175 0 min 0,000 mm 0,0 UV-I 62 W/m 0,0 C 0,3 C 4,8 km/h (1 Bft) 100,00 %
20.11.2016 09:46 0,3 C 98 % 1010,9 hPa 0,0 l/m 2,4 km/h (1 Bft) S 172 0 min 0,000 mm 0,0 UV-I 64 W/m 0,0 C 0,3 C 3,2 km/h (1 Bft) 100,00 %
20.11.2016 09:48 0,3 C 98 % 1010,9 hPa 0,0 l/m 1,8 km/h (1 Bft) S 172 0 min 0,000 mm 0,0 UV-I 66 W/m 0,0 C 0,3 C 3,2 km/h (1 Bft) 100,00 %
20.11.2016 09:50 0,3 C 98 % 1010,9 hPa 0,0 l/m 1,4 km/h (1 Bft) S 172 0 min 0,000 mm 0,0 UV-I 69 W/m 0,0 C 0,3 C 4,8 km/h (1 Bft) 97,37 %
20.11.2016 09:52 0,4 C 98 % 1011,0 hPa 0,0 l/m 1,1 km/h (1 Bft) S 172 0 min 0,000 mm 0,0 UV-I 70 W/m 0,1 C 0,4 C 1,6 km/h (1 Bft) 100,00 %
20.11.2016 09:55 0,4 C 98 % 1010,9 hPa 0,0 l/m 1,6 km/h (1 Bft) S 180 0 min 0,000 mm 0,0 UV-I 73 W/m 0,1 C 0,4 C 1,6 km/h (1 Bft) 97,37 %
20.11.2016 09:56 0,4 C 98 % 1010,9 hPa 0,0 l/m 1,6 km/h (1 Bft) S 172 0 min 0,000 mm 0,0 UV-I 79 W/m 0,1 C 0,4 C 1,6 km/h (1 Bft) 75,00 %
20.11.2016 09:58 0,5 C 98 % 1010,9 hPa 0,0 l/m 1,8 km/h (1 Bft) S 172 0 min 0,000 mm 0,0 UV-I 81 W/m 0,2 C 0,5 C 3,2 km/h (1 Bft) 100,00 %
20.11.2016 10:00 0,6 C 98 % 1010,9 hPa 0,0 l/m 0,5 km/h (0 Bft) S 172 0 min 0,026 mm 0,0 UV-I 86 W/m 0,3 C 0,6 C 3,2 km/h (1 Bft) 100,00 %
20.11.2016 10:02 0,6 C 98 % 1010,9 hPa 0,0 l/m 0,0 km/h (0 Bft) S 172 0 min 0,000 mm 0,0 UV-I 90 W/m 0,3 C 0,6 C 1,6 km/h (1 Bft) 100,00 %
20.11.2016 10:04 0,6 C 98 % 1010,9 hPa 0,0 l/m 0,3 km/h (0 Bft) S 172 0 min 0,000 mm 0,0 UV-I 90 W/m 0,3 C 0,6 C 1,6 km/h (1 Bft) 98,11 %
20.11.2016 10:06 0,6 C 98 % 1011,0 hPa 0,0 l/m 1,8 km/h (1 Bft) S 172 0 min 0,000 mm 0,0 UV-I 99 W/m 0,3 C 0,6 C 4,8 km/h (1 Bft) 100,00 %
20.11.2016 10:08 0,6 C 99 % 1011,0 hPa 0,0 l/m 3,4 km/h (1 Bft) S 173 0 min 0,000 mm 0,0 UV-I 98 W/m 0,5 C 0,6 C 4,8 km/h (1 Bft) 100,00 %
20.11.2016 10:10 0,6 C 99 % 1011,0 hPa 0,0 l/m 3,7 km/h (1 Bft) S-SW 197 0 min 0,000 mm 0,0 UV-I 99 W/m 0,5 C 0,6 C 4,8 km/h (1 Bft) 100,00 %
20.11.2016 10:12 0,7 C 99 % 1011,0 hPa 0,0 l/m 2,9 km/h (1 Bft) S-SW 197 0 min 0,000 mm 0,0 UV-I 102 W/m 0,6 C 0,7 C 4,8 km/h (1 Bft) 100,00 %
20.11.2016 10:14 0,7 C 99 % 1011,0 hPa 0,0 l/m 2,7 km/h (1 Bft) S-SW 197 0 min 0,000 mm 0,0 UV-I 111 W/m 0,6 C 0,7 C 4,8 km/h (1 Bft) 100,00 %
20.11.2016 10:16 0,7 C 99 % 1010,9 hPa 0,0 l/m 1,7 km/h (1 Bft) S-SW 197 0 min 0,000 mm 0,0 UV-I 117 W/m 0,6 C 0,7 C 4,8 km/h (1 Bft) 100,00 %
20.11.2016 10:18 0,7 C 98 % 1010,9 hPa 0,0 l/m 0,4 km/h (0 Bft) S-SW 197 0 min 0,000 mm 0,0 UV-I 123 W/m 0,4 C 0,7 C 1,6 km/h (1 Bft) 100,00 %
20.11.2016 10:20 0,8 C 98 % 1011,0 hPa 0,0 l/m 0,6 km/h (0 Bft) S-SW 197 0 min 0,000 mm 0,0 UV-I 122 W/m 0,5 C 0,8 C 3,2 km/h (1 Bft) 100,00 %
20.11.2016 10:22 0,9 C 98 % 1011,0 hPa 0,0 l/m 2,1 km/h (1 Bft) S-SW 197 0 min 0,000 mm 0,0 UV-I 128 W/m 0,6 C 0,9 C 4,8 km/h (1 Bft) 100,00 %
20.11.2016 10:24 0,9 C 99 % 1011,0 hPa 0,0 l/m 1,5 km/h (1 Bft) S-SW 197 0 min 0,000 mm 0,0 UV-I 117 W/m 0,8 C 0,9 C 3,2 km/h (1 Bft) 100,00 %
20.11.2016 10:26 1,0 C 99 % 1010,9 hPa 0,0 l/m 1,6 km/h (1 Bft) S-SW 197 0 min 0,000 mm 0,0 UV-I 126 W/m 0,9 C 1,0 C 3,2 km/h (1 Bft) 100,00 %
20.11.2016 10:28 1,1 C 99 % 1010,9 hPa 0,0 l/m 0,6 km/h (0 Bft) S-SW 197 0 min 0,000 mm 0,0 UV-I 127 W/m 1,0 C 1,1 C 3,2 km/h (1 Bft) 100,00 %
20.11.2016 10:30 1,2 C 99 % 1010,9 hPa 0,0 l/m 1,5 km/h (1 Bft) S-SW 197 0 min 0,000 mm 0,0 UV-I 130 W/m 1,1 C 1,2 C 3,2 km/h (1 Bft) 97,37 %
20.11.2016 10:32 1,3 C 99 % 1010,9 hPa 0,0 l/m 1,7 km/h (1 Bft) S-SW 197 0 min 0,000 mm 0,0 UV-I 141 W/m 1,2 C 1,3 C 3,2 km/h (1 Bft) 98,31 %
20.11.2016 10:34 1,4 C 99 % 1010,9 hPa 0,0 l/m 1,0 km/h (0 Bft) S-SW 197 0 min 0,000 mm 0,0 UV-I 120 W/m 1,3 C 1,4 C 3,2 km/h (1 Bft) 98,00 %
20.11.2016 10:36 1,4 C 99 % 1011,0 hPa 0,0 l/m 1,0 km/h (0 Bft) S-SW 197 0 min 0,000 mm 0,0 UV-I 93 W/m 1,3 C 1,4 C 3,2 km/h (1 Bft) 97,87 %
20.11.2016 10:38 1,4 C 99 % 1010,9 hPa 0,0 l/m 0,0 km/h (0 Bft) S-SW 197 0 min 0,000 mm 0,0 UV-I 90 W/m 1,3 C 1,4 C 0,0 km/h (0 Bft) 100,00 %
20.11.2016 10:40 1,5 C 99 % 1010,9 hPa 0,0 l/m 1,1 km/h (1 Bft) S-SW 197 0 min 0,000 mm 0,0 UV-I 85 W/m 1,4 C 1,5 C 3,2 km/h (1 Bft) 100,00 %
20.11.2016 10:42 1,5 C 99 % 1010,9 hPa 0,0 l/m 1,1 km/h (1 Bft) S-SW 197 0 min 0,000 mm 0,0 UV-I 83 W/m 1,4 C 1,5 C 3,2 km/h (1 Bft) 100,00 %
20.11.2016 10:44 1,5 C 99 % 1010,8 hPa 0,0 l/m 0,0 km/h (0 Bft) S-SW 197 0 min 0,000 mm 0,0 UV-I 85 W/m 1,4 C 1,5 C 1,6 km/h (1 Bft) 98,00 %
20.11.2016 10:46 1,5 C 99 % 1010,9 hPa 0,0 l/m 0,3 km/h (0 Bft) S-SW 197 0 min 0,000 mm 0,0 UV-I 93 W/m 1,4 C 1,5 C 1,6 km/h (1 Bft) 100,00 %
20.11.2016 10:48 1,5 C 99 % 1010,9 hPa 0,0 l/m 1,0 km/h (0 Bft) S-SW 197 0 min 0,000 mm 0,0 UV-I 99 W/m 1,4 C 1,5 C 1,6 km/h (1 Bft) 96,23 %
20.11.2016 10:50 1,5 C 99 % 1010,9 hPa 0,0 l/m 1,4 km/h (1 Bft) S-SW 197 0 min 0,000 mm 0,0 UV-I 105 W/m 1,4 C 1,5 C 3,2 km/h (1 Bft) 98,00 %
20.11.2016 10:52 1,5 C 99 % 1010,8 hPa 0,0 l/m 0,3 km/h (0 Bft) S-SW 197 0 min 0,000 mm 0,0 UV-I 111 W/m 1,4 C 1,5 C 1,6 km/h (1 Bft) 97,87 %
20.11.2016 10:54 1,6 C 99 % 1010,7 hPa 0,0 l/m 0,0 km/h (0 Bft) S-SW 197 0 min 0,000 mm 0,1 UV-I 116 W/m 1,5 C 1,6 C 0,0 km/h (0 Bft) 95,74 %
20.11.2016 10:56 1,6 C 99 % 1010,7 hPa 0,0 l/m 0,0 km/h (0 Bft) S-SW 197 0 min 0,000 mm 0,5 UV-I 120 W/m 1,5 C 1,6 C 0,0 km/h (0 Bft) 97,37 %
20.11.2016 10:58 1,6 C 99 % 1010,8 hPa 0,0 l/m 0,3 km/h (0 Bft) S-SW 197 0 min 0,000 mm 0,5 UV-I 121 W/m 1,5 C 1,6 C 1,6 km/h (1 Bft) 98,00 %
20.11.2016 11:00 1,7 C 99 % 1010,8 hPa 0,0 l/m 1,9 km/h (1 Bft) S-SW 197 0 min 0,025 mm 0,5 UV-I 121 W/m 1,6 C 1,7 C 3,2 km/h (1 Bft) 95,74 %
20.11.2016 11:02 1,7 C 99 % 1010,8 hPa 0,0 l/m 0,9 km/h (0 Bft) S-SW 197 0 min 0,000 mm 0,5 UV-I 121 W/m 1,6 C 1,7 C 1,6 km/h (1 Bft) 96,00 %
20.11.2016 11:04 1,8 C 99 % 1010,8 hPa 0,0 l/m 0,7 km/h (0 Bft) S-SW 197 0 min 0,000 mm 0,5 UV-I 117 W/m 1,7 C 1,8 C 1,6 km/h (1 Bft) 100,00 %
20.11.2016 11:06 1,8 C 99 % 1010,8 hPa 0,0 l/m 1,2 km/h (1 Bft) S-SW 197 0 min 0,000 mm 0,5 UV-I 114 W/m 1,7 C 1,8 C 3,2 km/h (1 Bft) 96,36 %
20.11.2016 11:08 1,8 C 99 % 1010,7 hPa 0,0 l/m 2,1 km/h (1 Bft) S-SW 197 0 min 0,000 mm 0,5 UV-I 116 W/m 1,7 C 1,8 C 3,2 km/h (1 Bft) 96,00 %
20.11.2016 11:10 1,8 C 99 % 1010,8 hPa 0,0 l/m 1,5 km/h (1 Bft) S-SW 197 0 min 0,000 mm 0,5 UV-I 122 W/m 1,7 C 1,8 C 3,2 km/h (1 Bft) 97,22 %
20.11.2016 11:12 1,9 C 99 % 1010,7 hPa 0,0 l/m 1,7 km/h (1 Bft) S-SW 197 0 min 0,000 mm 0,5 UV-I 131 W/m 1,8 C 1,9 C 3,2 km/h (1 Bft) 98,00 %
20.11.2016 11:14 1,9 C 99 % 1010,8 hPa 0,0 l/m 0,4 km/h (0 Bft) S-SW 197 0 min 0,000 mm 0,5 UV-I 141 W/m 1,8 C 1,9 C 1,6 km/h (1 Bft) 94,00 %
20.11.2016 11:16 2,0 C 98 % 1010,8 hPa 0,0 l/m 0,0 km/h (0 Bft) S-SW 197 0 min 0,000 mm 0,5 UV-I 146 W/m 1,7 C 2,0 C 0,0 km/h (0 Bft) 98,00 %
20.11.2016 11:18 2,0 C 98 % 1010,8 hPa 0,0 l/m 0,0 km/h (0 Bft) S-SW 197 0 min 0,000 mm 0,5 UV-I 151 W/m 1,7 C 2,0 C 0,0 km/h (0 Bft) 97,37 %
20.11.2016 11:20 1,9 C 99 % 1010,7 hPa 0,0 l/m 0,5 km/h (0 Bft) S-SW 197 0 min 0,000 mm 0,5 UV-I 157 W/m 1,8 C 1,9 C 1,6 km/h (1 Bft) 96,00 %
20.11.2016 11:22 2,1 C 98 % 1010,7 hPa 0,0 l/m 1,5 km/h (1 Bft) S-SW 197 0 min 0,000 mm 0,5 UV-I 158 W/m 1,8 C 2,1 C 3,2 km/h (1 Bft) 100,00 %
20.11.2016 11:24 2,2 C 99 % 1010,5 hPa 0,0 l/m 0,2 km/h (0 Bft) S-SW 197 0 min 0,000 mm 0,5 UV-I 152 W/m 2,1 C 2,2 C 1,6 km/h (1 Bft) 95,74 %
20.11.2016 11:26 2,2 C 98 % 1010,5 hPa 0,0 l/m 0,0 km/h (0 Bft) S-SW 197 0 min 0,000 mm 0,5 UV-I 144 W/m 1,9 C 2,2 C 0,0 km/h (0 Bft) 100,00 %
20.11.2016 11:28 2,2 C 98 % 1010,6 hPa 0,0 l/m 0,0 km/h (0 Bft) S-SW 197 0 min 0,000 mm 0,5 UV-I 143 W/m 1,9 C 2,2 C 0,0 km/h (0 Bft) 100,00 %
20.11.2016 11:30 2,3 C 98 % 1010,5 hPa 0,0 l/m 0,0 km/h (0 Bft) S-SW 197 0 min 0,000 mm 0,5 UV-I 142 W/m 2,0 C 2,3 C 0,0 km/h (0 Bft) 100,00 %
20.11.2016 11:32 2,4 C 98 % 1010,5 hPa 0,0 l/m 0,0 km/h (0 Bft) S-SW 197 0 min 0,000 mm 0,5 UV-I 145 W/m 2,1 C 2,4 C 0,0 km/h (0 Bft) 100,00 %
20.11.2016 11:34 2,5 C 98 % 1010,5 hPa 0,0 l/m 0,0 km/h (0 Bft) S-SW 197 0 min 0,000 mm 0,5 UV-I 142 W/m 2,2 C 2,5 C 0,0 km/h (0 Bft) 100,00 %
20.11.2016 11:36 2,6 C 98 % 1010,5 hPa 0,0 l/m 0,0 km/h (0 Bft) S-SW 197 0 min 0,000 mm 0,5 UV-I 145 W/m 2,3 C 2,6 C 0,0 km/h (0 Bft) 100,00 %
20.11.2016 11:38 2,6 C 98 % 1010,5 hPa 0,0 l/m 0,0 km/h (0 Bft) S-SW 197 0 min 0,000 mm 0,5 UV-I 148 W/m 2,3 C 2,6 C 0,0 km/h (0 Bft) 98,21 %
20.11.2016 11:40 2,7 C 98 % 1010,4 hPa 0,0 l/m 0,0 km/h (0 Bft) S-SW 197 0 min 0,000 mm 0,5 UV-I 144 W/m 2,4 C 2,7 C 0,0 km/h (0 Bft) 100,00 %
20.11.2016 11:42 2,8 C 98 % 1010,4 hPa 0,0 l/m 0,0 km/h (0 Bft) S-SW 197 0 min 0,000 mm 0,5 UV-I 149 W/m 2,5 C 2,8 C 0,0 km/h (0 Bft) 97,87 %
20.11.2016 11:44 2,9 C 98 % 1010,4 hPa 0,0 l/m 0,2 km/h (0 Bft) S-SW 197 0 min 0,000 mm 0,5 UV-I 163 W/m 2,6 C 2,9 C 3,2 km/h (1 Bft) 97,22 %
20.11.2016 11:46 3,1 C 98 % 1010,4 hPa 0,0 l/m 1,0 km/h (0 Bft) S-SW 197 0 min 0,000 mm 0,6 UV-I 193 W/m 2,8 C 3,1 C 3,2 km/h (1 Bft) 100,00 %
20.11.2016 11:48 3,2 C 98 % 1010,3 hPa 0,0 l/m 0,1 km/h (0 Bft) S-SW 197 0 min 0,000 mm 0,6 UV-I 199 W/m 2,9 C 3,2 C 1,6 km/h (1 Bft) 100,00 %
20.11.2016 11:50 3,4 C 98 % 1010,3 hPa 0,0 l/m 0,1 km/h (0 Bft) S-SW 197 2 min 0,000 mm 0,6 UV-I 220 W/m 3,1 C 3,4 C 1,6 km/h (1 Bft) 100,00 %
20.11.2016 11:52 3,6 C 98 % 1010,3 hPa 0,0 l/m 0,0 km/h (0 Bft) S-SW 197 2 min 0,000 mm 0,6 UV-I 232 W/m 3,3 C 3,6 C 0,0 km/h (0 Bft) 100,00 %
20.11.2016 11:54 3,7 C 98 % 1010,3 hPa 0,0 l/m 0,0 km/h (0 Bft) S-SW 197 2 min 0,000 mm 0,6 UV-I 225 W/m 3,4 C 3,7 C 0,0 km/h (0 Bft) 100,00 %
20.11.2016 11:56 3,9 C 98 % 1010,2 hPa 0,0 l/m 0,4 km/h (0 Bft) S-SW 197 2 min 0,000 mm 0,6 UV-I 215 W/m 3,6 C 3,9 C 1,6 km/h (1 Bft) 100,00 %
20.11.2016 11:58 4,0 C 98 % 1010,2 hPa 0,0 l/m 2,2 km/h (1 Bft) SO 144 2 min 0,000 mm 0,6 UV-I 222 W/m 3,7 C 4,0 C 4,8 km/h (1 Bft) 100,00 %
20.11.2016 12:00 4,1 C 97 % 1010,2 hPa 0,0 l/m 3,4 km/h (1 Bft) SO 137 2 min 0,000 mm 0,6 UV-I 213 W/m 3,7 C 4,1 C 4,8 km/h (1 Bft) 100,00 %
20.11.2016 12:02 4,1 C 97 % 1010,2 hPa 0,0 l/m 2,7 km/h (1 Bft) SO 135 2 min 0,051 mm 0,6 UV-I 245 W/m 3,7 C 4,1 C 4,8 km/h (1 Bft) 100,00 %
20.11.2016 12:04 4,2 C 96 % 1010,3 hPa 0,0 l/m 2,9 km/h (1 Bft) O-SO 118 2 min 0,000 mm 0,6 UV-I 231 W/m 3,6 C 4,2 C 4,8 km/h (1 Bft) 100,00 %
20.11.2016 12:06 4,2 C 96 % 1010,3 hPa 0,0 l/m 5,0 km/h (1 Bft) NO 51 2 min 0,000 mm 0,6 UV-I 255 W/m 3,6 C 4,2 C 8,0 km/h (2 Bft) 100,00 %
20.11.2016 12:08 4,3 C 96 % 1010,3 hPa 0,0 l/m 2,0 km/h (1 Bft) NO 53 2 min 0,000 mm 0,6 UV-I 264 W/m 3,7 C 4,3 C 4,8 km/h (1 Bft) 100,00 %
20.11.2016 12:10 4,3 C 95 % 1010,4 hPa 0,0 l/m 0,9 km/h (0 Bft) NO 53 2 min 0,000 mm 0,6 UV-I 270 W/m 3,6 C 4,3 C 3,2 km/h (1 Bft) 98,00 %
20.11.2016 12:12 4,4 C 95 % 1010,4 hPa 0,0 l/m 1,1 km/h (1 Bft) NO 53 2 min 0,000 mm 0,6 UV-I 247 W/m 3,7 C 4,4 C 4,8 km/h (1 Bft) 100,00 %
20.11.2016 12:14 4,4 C 95 % 1010,3 hPa 0,0 l/m 1,7 km/h (1 Bft) NO 47 2 min 0,000 mm 0,7 UV-I 285 W/m 3,7 C 4,4 C 4,8 km/h (1 Bft) 100,00 %
20.11.2016 12:16 4,5 C 95 % 1010,4 hPa 0,0 l/m 1,3 km/h (1 Bft) NO 47 2 min 0,000 mm 0,6 UV-I 271 W/m 3,8 C 4,5 C 3,2 km/h (1 Bft) 100,00 %
20.11.2016 12:18 4,6 C 96 % 1010,4 hPa 0,0 l/m 0,3 km/h (0 Bft) NO 46 2 min 0,000 mm 0,6 UV-I 246 W/m 4,0 C 4,6 C 1,6 km/h (1 Bft) 100,00 %
20.11.2016 12:20 4,6 C 95 % 1010,4 hPa 0,0 l/m 0,1 km/h (0 Bft) NO 46 2 min 0,000 mm 0,6 UV-I 233 W/m 3,9 C 4,6 C 1,6 km/h (1 Bft) 100,00 %
20.11.2016 12:22 4,6 C 95 % 1010,3 hPa 0,0 l/m 0,6 km/h (0 Bft) NO 46 2 min 0,000 mm 0,6 UV-I 237 W/m 3,9 C 4,6 C 3,2 km/h (1 Bft) 97,92 %
20.11.2016 12:24 4,7 C 95 % 1010,3 hPa 0,0 l/m 0,8 km/h (0 Bft) NO 46 2 min 0,000 mm 0,6 UV-I 231 W/m 4,0 C 4,7 C 3,2 km/h (1 Bft) 98,00 %
20.11.2016 12:26 4,8 C 95 % 1010,2 hPa 0,0 l/m 3,5 km/h (1 Bft) O-NO 57 2 min 0,000 mm 0,6 UV-I 220 W/m 4,1 C 4,8 C 6,4 km/h (2 Bft) 98,08 %
20.11.2016 12:28 4,8 C 95 % 1010,2 hPa 0,0 l/m 1,8 km/h (1 Bft) O-NO 57 0 min 0,000 mm 0,6 UV-I 172 W/m 4,1 C 4,8 C 4,8 km/h (1 Bft) 97,92 %
20.11.2016 12:30 4,8 C 95 % 1010,3 hPa 0,0 l/m 2,0 km/h (1 Bft) O-NO 57 2 min 0,000 mm 0,6 UV-I 206 W/m 4,1 C 4,8 C 3,2 km/h (1 Bft) 100,00 %
20.11.2016 12:32 4,8 C 95 % 1010,3 hPa 0,0 l/m 1,9 km/h (1 Bft) O-NO 57 2 min 0,000 mm 0,6 UV-I 236 W/m 4,1 C 4,8 C 4,8 km/h (1 Bft) 100,00 %
20.11.2016 12:34 4,8 C 94 % 1010,2 hPa 0,0 l/m 1,5 km/h (1 Bft) O-NO 57 2 min 0,000 mm 0,7 UV-I 325 W/m 3,9 C 4,8 C 4,8 km/h (1 Bft) 100,00 %
20.11.2016 12:36 4,9 C 95 % 1010,1 hPa 0,0 l/m 3,2 km/h (1 Bft) O-NO 60 2 min 0,000 mm 0,7 UV-I 362 W/m 4,2 C 4,9 C 6,4 km/h (2 Bft) 97,14 %
20.11.2016 12:38 5,2 C 95 % 1010,1 hPa 0,0 l/m 4,2 km/h (1 Bft) O-NO 74 2 min 0,000 mm 0,7 UV-I 394 W/m 4,5 C 5,2 C 6,4 km/h (2 Bft) 98,11 %
20.11.2016 12:40 5,6 C 95 % 1010,1 hPa 0,0 l/m 5,6 km/h (1 Bft) NO 53 2 min 0,000 mm 0,7 UV-I 393 W/m 4,9 C 5,6 C 9,7 km/h (2 Bft) 98,00 %
20.11.2016 12:42 5,6 C 94 % 1010,1 hPa 0,0 l/m 4,1 km/h (1 Bft) O-NO 60 2 min 0,000 mm 0,7 UV-I 316 W/m 4,7 C 5,6 C 6,4 km/h (2 Bft) 97,37 %
20.11.2016 12:44 5,7 C 94 % 1010,1 hPa 0,0 l/m 6,4 km/h (2 Bft) NO 42 2 min 0,000 mm 0,6 UV-I 267 W/m 4,8 C 5,7 C 9,7 km/h (2 Bft) 96,23 %
20.11.2016 12:46 5,7 C 93 % 1010,1 hPa 0,0 l/m 5,0 km/h (1 Bft) NO 52 2 min 0,000 mm 0,6 UV-I 227 W/m 4,7 C 5,7 C 6,4 km/h (2 Bft) 96,00 %
20.11.2016 12:48 5,7 C 93 % 1009,9 hPa 0,0 l/m 5,1 km/h (1 Bft) O-NO 59 2 min 0,000 mm 0,6 UV-I 224 W/m 4,7 C 5,7 C 11,3 km/h (2 Bft) 97,73 %
20.11.2016 12:50 5,8 C 93 % 1009,9 hPa 0,0 l/m 7,4 km/h (2 Bft) NO 49 2 min 0,000 mm 0,6 UV-I 232 W/m 4,8 C 4,9 C 11,3 km/h (2 Bft) 97,56 %
20.11.2016 12:52 5,8 C 93 % 1009,9 hPa 0,0 l/m 4,2 km/h (1 Bft) NO 44 2 min 0,000 mm 0,6 UV-I 234 W/m 4,8 C 5,8 C 6,4 km/h (2 Bft) 94,34 %
20.11.2016 12:54 5,9 C 94 % 1009,9 hPa 0,0 l/m 2,1 km/h (1 Bft) NO 44 2 min 0,000 mm 0,6 UV-I 224 W/m 5,0 C 5,9 C 6,4 km/h (2 Bft) 95,74 %
20.11.2016 12:56 6,0 C 94 % 1009,9 hPa 0,0 l/m 4,7 km/h (1 Bft) NO 42 2 min 0,000 mm 0,6 UV-I 221 W/m 5,1 C 6,0 C 6,4 km/h (2 Bft) 95,45 %
20.11.2016 12:58 5,9 C 93 % 1009,7 hPa 0,0 l/m 7,0 km/h (2 Bft) NO 43 0 min 0,000 mm 0,5 UV-I 177 W/m 4,9 C 5,4 C 9,7 km/h (2 Bft) 98,00 %
20.11.2016 13:00 6,0 C 93 % 1009,8 hPa 0,0 l/m 5,4 km/h (1 Bft) N-NO 26 2 min 0,102 mm 0,5 UV-I 213 W/m 5,0 C 6,0 C 8,0 km/h (2 Bft) 97,44 %
20.11.2016 13:02 6,1 C 94 % 1009,9 hPa 0,0 l/m 4,2 km/h (1 Bft) N-NO 26 2 min 0,000 mm 0,6 UV-I 273 W/m 5,2 C 6,1 C 6,4 km/h (2 Bft) 92,73 %
20.11.2016 13:04 6,1 C 94 % 1009,9 hPa 0,0 l/m 3,9 km/h (1 Bft) N 9 2 min 0,000 mm 0,5 UV-I 222 W/m 5,2 C 6,1 C 6,4 km/h (2 Bft) 97,44 %
20.11.2016 13:06 6,1 C 94 % 1009,9 hPa 0,0 l/m 6,6 km/h (2 Bft) NO 38 0 min 0,000 mm 0,5 UV-I 183 W/m 5,2 C 6,0 C 9,7 km/h (2 Bft) 100,00 %
20.11.2016 13:08 6,1 C 93 % 1009,9 hPa 0,0 l/m 7,4 km/h (2 Bft) NO 40 0 min 0,000 mm 0,5 UV-I 165 W/m 5,1 C 5,3 C 11,3 km/h (2 Bft) 100,00 %
20.11.2016 13:10 6,1 C 93 % 1009,8 hPa 0,0 l/m 5,4 km/h (1 Bft) N-NO 33 0 min 0,000 mm 0,5 UV-I 184 W/m 5,1 C 6,1 C 8,0 km/h (2 Bft) 100,00 %
20.11.2016 13:12 6,1 C 94 % 1009,8 hPa 0,0 l/m 3,8 km/h (1 Bft) NO 36 2 min 0,000 mm 0,5 UV-I 223 W/m 5,2 C 6,1 C 6,4 km/h (2 Bft) 100,00 %
20.11.2016 13:14 6,2 C 94 % 1009,8 hPa 0,0 l/m 6,4 km/h (2 Bft) N-NO 23 2 min 0,000 mm 0,5 UV-I 295 W/m 5,3 C 6,2 C 9,7 km/h (2 Bft) 100,00 %
20.11.2016 13:16 6,4 C 94 % 1009,9 hPa 0,0 l/m 3,7 km/h (1 Bft) N-NO 28 2 min 0,000 mm 0,6 UV-I 344 W/m 5,5 C 6,4 C 6,4 km/h (2 Bft) 100,00 %
20.11.2016 13:18 6,5 C 93 % 1009,8 hPa 0,0 l/m 5,2 km/h (1 Bft) N 9 2 min 0,000 mm 0,6 UV-I 312 W/m 5,5 C 6,5 C 6,4 km/h (2 Bft) 100,00 %
20.11.2016 13:20 6,7 C 94 % 1009,8 hPa 0,0 l/m 4,8 km/h (1 Bft) N-NO 21 2 min 0,000 mm 0,6 UV-I 362 W/m 5,8 C 6,7 C 8,0 km/h (2 Bft) 100,00 %
20.11.2016 13:22 6,6 C 92 % 1009,9 hPa 0,0 l/m 1,5 km/h (1 Bft) N-NO 12 2 min 0,000 mm 0,6 UV-I 312 W/m 5,4 C 6,6 C 4,8 km/h (1 Bft) 100,00 %
20.11.2016 13:24 6,5 C 93 % 1009,9 hPa 0,0 l/m 2,7 km/h (1 Bft) N-NO 18 2 min 0,000 mm 0,6 UV-I 327 W/m 5,5 C 6,5 C 6,4 km/h (2 Bft) 100,00 %
20.11.2016 13:26 6,6 C 93 % 1009,9 hPa 0,0 l/m 2,4 km/h (1 Bft) N-NO 24 2 min 0,000 mm 0,6 UV-I 332 W/m 5,6 C 6,6 C 6,4 km/h (2 Bft) 100,00 %
20.11.2016 13:28 6,6 C 93 % 1009,8 hPa 0,0 l/m 0,5 km/h (0 Bft) N-NO 18 2 min 0,000 mm 0,5 UV-I 234 W/m 5,6 C 6,6 C 1,6 km/h (1 Bft) 100,00 %
20.11.2016 13:30 6,4 C 93 % 1009,9 hPa 0,0 l/m 0,6 km/h (0 Bft) N-NO 18 2 min 0,000 mm 0,5 UV-I 207 W/m 5,4 C 6,4 C 3,2 km/h (1 Bft) 100,00 %
20.11.2016 13:32 6,4 C 92 % 1010,0 hPa 0,0 l/m 1,5 km/h (1 Bft) N 5 0 min 0,000 mm 0,5 UV-I 142 W/m 5,2 C 6,4 C 3,2 km/h (1 Bft) 100,00 %
20.11.2016 13:34 6,3 C 92 % 1010,0 hPa 0,0 l/m 0,9 km/h (0 Bft) N-NW 340 0 min 0,000 mm 0,5 UV-I 135 W/m 5,1 C 6,3 C 3,2 km/h (1 Bft) 100,00 %
20.11.2016 13:36 6,2 C 93 % 1009,9 hPa 0,0 l/m 0,8 km/h (0 Bft) N-NW 338 2 min 0,000 mm 0,5 UV-I 187 W/m 5,2 C 6,2 C 3,2 km/h (1 Bft) 98,11 %
20.11.2016 13:38 6,2 C 94 % 1009,9 hPa 0,0 l/m 0,3 km/h (0 Bft) N-NW 338 2 min 0,000 mm 0,5 UV-I 241 W/m 5,3 C 6,2 C 3,2 km/h (1 Bft) 100,00 %
20.11.2016 13:40 6,3 C 94 % 1009,9 hPa 0,0 l/m 1,4 km/h (1 Bft) N-NW 347 2 min 0,000 mm 0,5 UV-I 238 W/m 5,4 C 6,3 C 3,2 km/h (1 Bft) 100,00 %
20.11.2016 13:42 6,4 C 93 % 1009,9 hPa 0,0 l/m 0,5 km/h (0 Bft) N-NW 347 2 min 0,000 mm 0,5 UV-I 285 W/m 5,4 C 6,4 C 3,2 km/h (1 Bft) 100,00 %
20.11.2016 13:44 6,4 C 93 % 1009,8 hPa 0,0 l/m 1,3 km/h (1 Bft) N-NW 347 2 min 0,000 mm 0,4 UV-I 252 W/m 5,4 C 6,4 C 3,2 km/h (1 Bft) 100,00 %
20.11.2016 13:46 6,5 C 93 % 1009,8 hPa 0,0 l/m 1,4 km/h (1 Bft) N 351 2 min 0,000 mm 0,2 UV-I 222 W/m 5,5 C 6,5 C 4,8 km/h (1 Bft) 100,00 %
20.11.2016 13:48 6,6 C 93 % 1009,8 hPa 0,0 l/m 1,1 km/h (1 Bft) N 351 2 min 0,000 mm 0,1 UV-I 238 W/m 5,6 C 6,6 C 4,8 km/h (1 Bft) 100,00 %
20.11.2016 13:50 6,6 C 93 % 1009,8 hPa 0,0 l/m 4,8 km/h (1 Bft) NO 38 2 min 0,000 mm 0,1 UV-I 261 W/m 5,6 C 6,6 C 8,0 km/h (2 Bft) 98,00 %
20.11.2016 13:52 6,8 C 93 % 1009,7 hPa 0,0 l/m 3,8 km/h (1 Bft) NO 38 2 min 0,000 mm 0,0 UV-I 278 W/m 5,7 C 6,8 C 6,4 km/h (2 Bft) 100,00 %
20.11.2016 13:54 6,8 C 93 % 1009,7 hPa 0,0 l/m 3,8 km/h (1 Bft) N-NO 29 2 min 0,000 mm 0,0 UV-I 168 W/m 5,7 C 6,8 C 6,4 km/h (2 Bft) 100,00 %
20.11.2016 13:56 6,7 C 92 % 1009,7 hPa 0,0 l/m 3,7 km/h (1 Bft) N-NO 28 0 min 0,000 mm 0,0 UV-I 112 W/m 5,5 C 6,7 C 6,4 km/h (2 Bft) 100,00 %
20.11.2016 13:58 6,6 C 93 % 1009,7 hPa 0,0 l/m 4,4 km/h (1 Bft) N-NO 24 0 min 0,000 mm 0,0 UV-I 127 W/m 5,6 C 6,6 C 6,4 km/h (2 Bft) 100,00 %
20.11.2016 14:00 6,5 C 93 % 1009,7 hPa 0,0 l/m 4,7 km/h (1 Bft) N-NO 32 2 min 0,101 mm 0,0 UV-I 254 W/m 5,5 C 6,5 C 6,4 km/h (2 Bft) 100,00 %
20.11.2016 14:02 6,6 C 94 % 1009,7 hPa 0,0 l/m 4,9 km/h (1 Bft) N-NO 24 2 min 0,000 mm 0,0 UV-I 300 W/m 5,7 C 6,6 C 8,0 km/h (2 Bft) 96,00 %
20.11.2016 14:04 6,7 C 94 % 1009,7 hPa 0,0 l/m 1,8 km/h (1 Bft) N 5 2 min 0,000 mm 0,0 UV-I 300 W/m 5,8 C 6,7 C 3,2 km/h (1 Bft) 100,00 %
20.11.2016 14:06 6,7 C 93 % 1009,7 hPa 0,0 l/m 0,6 km/h (0 Bft) N 9 2 min 0,000 mm 0,0 UV-I 273 W/m 5,6 C 6,7 C 3,2 km/h (1 Bft) 100,00 %
20.11.2016 14:08 6,7 C 93 % 1009,7 hPa 0,0 l/m 1,3 km/h (1 Bft) N 9 2 min 0,000 mm 0,0 UV-I 277 W/m 5,6 C 6,7 C 4,8 km/h (1 Bft) 100,00 %
20.11.2016 14:10 6,8 C 93 % 1009,5 hPa 0,0 l/m 1,9 km/h (1 Bft) N 9 2 min 0,000 mm 0,0 UV-I 286 W/m 5,7 C 6,8 C 4,8 km/h (1 Bft) 98,31 %
20.11.2016 14:12 6,9 C 93 % 1009,5 hPa 0,0 l/m 4,7 km/h (1 Bft) NO 38 2 min 0,000 mm 0,0 UV-I 273 W/m 5,8 C 6,9 C 6,4 km/h (2 Bft) 97,87 %
20.11.2016 14:14 7,1 C 93 % 1009,5 hPa 0,0 l/m 4,5 km/h (1 Bft) NO 54 2 min 0,000 mm 0,0 UV-I 262 W/m 6,0 C 7,1 C 6,4 km/h (2 Bft) 97,87 %
20.11.2016 14:16 7,2 C 93 % 1009,5 hPa 0,0 l/m 3,3 km/h (1 Bft) NO 55 2 min 0,000 mm 0,0 UV-I 257 W/m 6,1 C 7,2 C 6,4 km/h (2 Bft) 97,37 %
20.11.2016 14:18 7,3 C 92 % 1009,5 hPa 0,0 l/m 8,3 km/h (2 Bft) O-NO 66 2 min 0,000 mm 0,0 UV-I 254 W/m 6,1 C 5,8 C 12,9 km/h (3 Bft) 98,21 %
20.11.2016 14:20 7,4 C 91 % 1009,5 hPa 0,0 l/m 11,2 km/h (2 Bft) O-NO 63 2 min 0,000 mm 0,0 UV-I 247 W/m 6,0 C 4,0 C 16,1 km/h (3 Bft) 97,44 %
20.11.2016 14:22 7,6 C 90 % 1009,5 hPa 0,0 l/m 11,2 km/h (2 Bft) O-NO 66 2 min 0,000 mm 0,0 UV-I 226 W/m 6,1 C 4,2 C 16,1 km/h (3 Bft) 98,18 %
20.11.2016 14:24 7,6 C 90 % 1009,4 hPa 0,0 l/m 10,3 km/h (2 Bft) O-NO 76 2 min 0,000 mm 0,0 UV-I 219 W/m 6,1 C 4,8 C 16,1 km/h (3 Bft) 97,78 %
20.11.2016 14:26 7,6 C 90 % 1009,4 hPa 0,0 l/m 14,6 km/h (3 Bft) O-NO 69 2 min 0,000 mm 0,0 UV-I 215 W/m 6,1 C 2,4 C 17,7 km/h (3 Bft) 97,37 %
20.11.2016 14:28 7,6 C 90 % 1009,4 hPa 0,2 l/m 11,9 km/h (2 Bft) O-NO 68 2 min 0,000 mm 0,0 UV-I 214 W/m 6,1 C 3,8 C 17,7 km/h (3 Bft) 96,23 %
20.11.2016 14:30 7,6 C 90 % 1009,5 hPa 0,0 l/m 8,9 km/h (2 Bft) NO 42 2 min 0,000 mm 0,0 UV-I 217 W/m 6,1 C 5,7 C 12,9 km/h (3 Bft) 97,56 %
20.11.2016 14:32 7,7 C 90 % 1009,5 hPa 0,0 l/m 10,6 km/h (2 Bft) NO 54 2 min 0,000 mm 0,0 UV-I 226 W/m 6,2 C 4,7 C 14,5 km/h (3 Bft) 96,23 %
20.11.2016 14:34 7,7 C 90 % 1009,5 hPa 0,0 l/m 6,5 km/h (2 Bft) O-NO 71 2 min 0,000 mm 0,0 UV-I 220 W/m 6,2 C 7,6 C 9,7 km/h (2 Bft) 97,56 %
20.11.2016 14:36 7,7 C 90 % 1009,5 hPa 0,0 l/m 5,8 km/h (2 Bft) NO 53 2 min 0,000 mm 0,0 UV-I 214 W/m 6,2 C 7,7 C 8,0 km/h (2 Bft) 96,00 %
20.11.2016 14:38 7,7 C 90 % 1009,5 hPa 0,0 l/m 7,8 km/h (2 Bft) NO 53 2 min 0,000 mm 0,0 UV-I 212 W/m 6,2 C 6,6 C 11,3 km/h (2 Bft) 97,87 %
20.11.2016 14:40 7,7 C 90 % 1009,5 hPa 0,0 l/m 6,9 km/h (2 Bft) NO 50 2 min 0,000 mm 0,0 UV-I 206 W/m 6,2 C 7,3 C 9,7 km/h (2 Bft) 98,00 %
20.11.2016 14:42 7,7 C 90 % 1009,5 hPa 0,0 l/m 7,6 km/h (2 Bft) O-NO 66 2 min 0,000 mm 0,0 UV-I 200 W/m 6,2 C 6,7 C 9,7 km/h (2 Bft) 98,00 %
20.11.2016 14:44 7,8 C 90 % 1009,5 hPa 0,0 l/m 5,8 km/h (2 Bft) O-NO 74 2 min 0,000 mm 0,0 UV-I 197 W/m 6,3 C 7,8 C 8,0 km/h (2 Bft) 100,00 %
20.11.2016 14:46 7,7 C 90 % 1009,5 hPa 0,0 l/m 5,4 km/h (1 Bft) O 85 2 min 0,000 mm 0,0 UV-I 192 W/m 6,2 C 7,7 C 8,0 km/h (2 Bft) 100,00 %
20.11.2016 14:48 7,7 C 90 % 1009,6 hPa 0,0 l/m 4,4 km/h (1 Bft) NO 53 2 min 0,000 mm 0,0 UV-I 190 W/m 6,2 C 7,7 C 9,7 km/h (2 Bft) 100,00 %
20.11.2016 14:50 7,7 C 90 % 1009,6 hPa 0,0 l/m 5,5 km/h (1 Bft) O-NO 57 2 min 0,000 mm 0,0 UV-I 187 W/m 6,2 C 7,7 C 8,0 km/h (2 Bft) 100,00 %
20.11.2016 14:52 7,8 C 90 % 1009,6 hPa 0,0 l/m 7,1 km/h (2 Bft) O-NO 59 2 min 0,000 mm 0,0 UV-I 180 W/m 6,3 C 7,2 C 9,7 km/h (2 Bft) 100,00 %
20.11.2016 14:54 7,8 C 90 % 1009,6 hPa 0,0 l/m 6,2 km/h (2 Bft) NO 55 2 min 0,000 mm 0,0 UV-I 178 W/m 6,3 C 7,8 C 9,7 km/h (2 Bft) 100,00 %
20.11.2016 14:56 7,8 C 90 % 1009,6 hPa 0,0 l/m 4,9 km/h (1 Bft) NO 53 2 min 0,000 mm 0,0 UV-I 181 W/m 6,3 C 7,8 C 8,0 km/h (2 Bft) 100,00 %
20.11.2016 14:58 7,8 C 89 % 1009,5 hPa 0,0 l/m 5,5 km/h (1 Bft) O-NO 61 2 min 0,000 mm 0,0 UV-I 181 W/m 6,1 C 7,8 C 8,0 km/h (2 Bft) 100,00 %
20.11.2016 15:00 7,8 C 89 % 1009,5 hPa 0,0 l/m 6,1 km/h (2 Bft) O-NO 61 2 min 0,102 mm 0,0 UV-I 179 W/m 6,1 C 7,8 C 8,0 km/h (2 Bft) 100,00 %
20.11.2016 15:02 7,8 C 89 % 1009,5 hPa 0,0 l/m 7,4 km/h (2 Bft) O-NO 63 2 min 0,000 mm 0,0 UV-I 172 W/m 6,1 C 7,0 C 9,7 km/h (2 Bft) 100,00 %
20.11.2016 15:04 7,9 C 89 % 1009,6 hPa 0,0 l/m 5,5 km/h (1 Bft) O-NO 78 2 min 0,000 mm 0,0 UV-I 172 W/m 6,2 C 7,9 C 8,0 km/h (2 Bft) 95,92 %
20.11.2016 15:06 7,9 C 89 % 1009,6 hPa 0,0 l/m 6,4 km/h (2 Bft) O-NO 69 2 min 0,000 mm 0,0 UV-I 169 W/m 6,2 C 7,9 C 8,0 km/h (2 Bft) 95,83 %
20.11.2016 15:08 7,9 C 89 % 1009,6 hPa 0,0 l/m 5,9 km/h (2 Bft) NO 51 2 min 0,000 mm 0,0 UV-I 164 W/m 6,2 C 7,9 C 8,0 km/h (2 Bft) 100,00 %
20.11.2016 15:10 7,9 C 89 % 1009,6 hPa 0,0 l/m 5,9 km/h (2 Bft) NO 45 2 min 0,000 mm 0,0 UV-I 159 W/m 6,2 C 7,9 C 9,7 km/h (2 Bft) 100,00 %
20.11.2016 15:12 7,9 C 89 % 1009,5 hPa 0,0 l/m 6,6 km/h (2 Bft) O-NO 66 2 min 0,000 mm 0,0 UV-I 145 W/m 6,2 C 7,8 C 9,7 km/h (2 Bft) 100,00 %
20.11.2016 15:14 7,9 C 89 % 1009,6 hPa 0,0 l/m 6,4 km/h (2 Bft) O-NO 60 2 min 0,000 mm 0,0 UV-I 129 W/m 6,2 C 7,9 C 8,0 km/h (2 Bft) 100,00 %
20.11.2016 15:16 7,9 C 89 % 1009,5 hPa 0,0 l/m 6,6 km/h (2 Bft) O-NO 60 2 min 0,000 mm 0,0 UV-I 112 W/m 6,2 C 7,8 C 8,0 km/h (2 Bft) 100,00 %
20.11.2016 15:18 7,8 C 89 % 1009,6 hPa 0,0 l/m 6,1 km/h (2 Bft) O-NO 69 2 min 0,000 mm 0,0 UV-I 115 W/m 6,1 C 7,8 C 9,7 km/h (2 Bft) 100,00 %
20.11.2016 15:20 7,8 C 89 % 1009,7 hPa 0,0 l/m 5,3 km/h (1 Bft) O-NO 63 2 min 0,000 mm 0,0 UV-I 123 W/m 6,1 C 7,8 C 6,4 km/h (2 Bft) 100,00 %
20.11.2016 15:22 7,8 C 90 % 1009,7 hPa 0,0 l/m 4,1 km/h (1 Bft) NO 50 2 min 0,000 mm 0,0 UV-I 129 W/m 6,3 C 7,8 C 6,4 km/h (2 Bft) 100,00 %
20.11.2016 15:24 7,7 C 90 % 1009,7 hPa 0,0 l/m 3,7 km/h (1 Bft) NO 46 2 min 0,000 mm 0,0 UV-I 121 W/m 6,2 C 7,7 C 6,4 km/h (2 Bft) 97,87 %
20.11.2016 15:26 7,7 C 90 % 1009,7 hPa 0,0 l/m 3,7 km/h (1 Bft) O-NO 60 2 min 0,000 mm 0,0 UV-I 116 W/m 6,2 C 7,7 C 6,4 km/h (2 Bft) 100,00 %
20.11.2016 15:28 7,7 C 90 % 1009,7 hPa 0,0 l/m 4,8 km/h (1 Bft) O-NO 57 2 min 0,000 mm 0,0 UV-I 83 W/m 6,2 C 7,7 C 8,0 km/h (2 Bft) 100,00 %
20.11.2016 15:30 7,7 C 90 % 1009,7 hPa 0,0 l/m 5,6 km/h (1 Bft) O-NO 63 2 min 0,000 mm 0,0 UV-I 60 W/m 6,2 C 7,7 C 6,4 km/h (2 Bft) 100,00 %
20.11.2016 15:32 7,6 C 90 % 1009,6 hPa 0,0 l/m 6,1 km/h (2 Bft) O-NO 57 0 min 0,000 mm 0,0 UV-I 53 W/m 6,1 C 7,6 C 8,0 km/h (2 Bft) 100,00 %
20.11.2016 15:34 7,6 C 90 % 1009,5 hPa 0,0 l/m 5,6 km/h (1 Bft) NO 44 0 min 0,000 mm 0,0 UV-I 53 W/m 6,1 C 7,6 C 9,7 km/h (2 Bft) 100,00 %
20.11.2016 15:36 7,4 C 90 % 1009,6 hPa 0,0 l/m 4,6 km/h (1 Bft) O-NO 64 2 min 0,000 mm 0,0 UV-I 53 W/m 5,9 C 7,4 C 6,4 km/h (2 Bft) 98,00 %
20.11.2016 15:38 7,4 C 90 % 1009,5 hPa 0,0 l/m 5,3 km/h (1 Bft) NO 53 0 min 0,000 mm 0,0 UV-I 45 W/m 5,9 C 7,4 C 6,4 km/h (2 Bft) 100,00 %
20.11.2016 15:40 7,3 C 90 % 1009,4 hPa 0,0 l/m 5,9 km/h (2 Bft) O-NO 69 0 min 0,000 mm 0,0 UV-I 41 W/m 5,8 C 7,3 C 8,0 km/h (2 Bft) 100,00 %
20.11.2016 15:42 7,1 C 91 % 1009,4 hPa 0,0 l/m 4,8 km/h (1 Bft) O 88 0 min 0,000 mm 0,0 UV-I 40 W/m 5,7 C 7,1 C 8,0 km/h (2 Bft) 100,00 %
20.11.2016 15:44 6,9 C 91 % 1009,4 hPa 0,0 l/m 3,3 km/h (1 Bft) O 88 0 min 0,000 mm 0,0 UV-I 38 W/m 5,5 C 6,9 C 4,8 km/h (1 Bft) 100,00 %
20.11.2016 15:46 6,9 C 92 % 1009,4 hPa 0,0 l/m 2,8 km/h (1 Bft) O-NO 65 0 min 0,000 mm 0,0 UV-I 37 W/m 5,7 C 6,9 C 6,4 km/h (2 Bft) 97,37 %
20.11.2016 15:48 6,9 C 92 % 1009,4 hPa 0,0 l/m 3,1 km/h (1 Bft) NO 48 2 min 0,000 mm 0,0 UV-I 38 W/m 5,7 C 6,9 C 6,4 km/h (2 Bft) 100,00 %
20.11.2016 15:50 6,9 C 92 % 1009,4 hPa 0,0 l/m 2,4 km/h (1 Bft) NO 48 2 min 0,000 mm 0,0 UV-I 42 W/m 5,7 C 6,9 C 4,8 km/h (1 Bft) 97,87 %
20.11.2016 15:52 6,9 C 92 % 1009,4 hPa 0,0 l/m 2,9 km/h (1 Bft) NO 53 2 min 0,000 mm 0,0 UV-I 40 W/m 5,7 C 6,9 C 4,8 km/h (1 Bft) 98,11 %
20.11.2016 15:54 6,9 C 92 % 1009,4 hPa 0,0 l/m 4,2 km/h (1 Bft) O-NO 73 2 min 0,000 mm 0,0 UV-I 42 W/m 5,7 C 6,9 C 6,4 km/h (2 Bft) 100,00 %
20.11.2016 15:56 6,8 C 92 % 1009,4 hPa 0,0 l/m 3,8 km/h (1 Bft) O-NO 73 2 min 0,000 mm 0,0 UV-I 32 W/m 5,6 C 6,8 C 4,8 km/h (1 Bft) 100,00 %
20.11.2016 15:58 6,8 C 92 % 1009,4 hPa 0,0 l/m 2,9 km/h (1 Bft) O-NO 73 2 min 0,000 mm 0,0 UV-I 30 W/m 5,6 C 6,8 C 4,8 km/h (1 Bft) 100,00 %
20.11.2016 16:00 6,7 C 92 % 1009,5 hPa 0,0 l/m 0,7 km/h (0 Bft) O-NO 73 2 min 0,051 mm 0,0 UV-I 28 W/m 5,5 C 6,7 C 3,2 km/h (1 Bft) 100,00 %
20.11.2016 16:02 6,6 C 92 % 1009,5 hPa 0,0 l/m 1,6 km/h (1 Bft) O-NO 73 2 min 0,000 mm 0,0 UV-I 25 W/m 5,4 C 6,6 C 3,2 km/h (1 Bft) 100,00 %
20.11.2016 16:04 6,5 C 93 % 1009,5 hPa 0,0 l/m 2,2 km/h (1 Bft) O-NO 73 2 min 0,000 mm 0,0 UV-I 22 W/m 5,5 C 6,5 C 3,2 km/h (1 Bft) 100,00 %
20.11.2016 16:06 6,5 C 93 % 1009,6 hPa 0,0 l/m 2,9 km/h (1 Bft) O-NO 73 2 min 0,000 mm 0,0 UV-I 19 W/m 5,5 C 6,5 C 4,8 km/h (1 Bft) 100,00 %
20.11.2016 16:08 6,4 C 93 % 1009,5 hPa 0,0 l/m 3,3 km/h (1 Bft) O-NO 73 2 min 0,000 mm 0,0 UV-I 17 W/m 5,4 C 6,4 C 4,8 km/h (1 Bft) 98,00 %
20.11.2016 16:10 6,4 C 93 % 1009,5 hPa 0,0 l/m 2,4 km/h (1 Bft) O-NO 73 0 min 0,000 mm 0,0 UV-I 16 W/m 5,4 C 6,4 C 3,2 km/h (1 Bft) 100,00 %
20.11.2016 16:12 6,5 C 93 % 1009,5 hPa 0,0 l/m 2,4 km/h (1 Bft) O-NO 73 0 min 0,000 mm 0,0 UV-I 14 W/m 5,5 C 6,5 C 3,2 km/h (1 Bft) 100,00 %
20.11.2016 16:14 6,5 C 93 % 1009,5 hPa 0,0 l/m 3,0 km/h (1 Bft) O-NO 73 0 min 0,000 mm 0,0 UV-I 13 W/m 5,5 C 6,5 C 4,8 km/h (1 Bft) 100,00 %
20.11.2016 16:16 6,4 C 93 % 1009,5 hPa 0,0 l/m 2,6 km/h (1 Bft) O-NO 73 0 min 0,000 mm 0,0 UV-I 11 W/m 5,4 C 6,4 C 4,8 km/h (1 Bft) 100,00 %
20.11.2016 16:18 6,4 C 93 % 1009,5 hPa 0,0 l/m 3,8 km/h (1 Bft) O-NO 73 0 min 0,000 mm 0,0 UV-I 9 W/m 5,4 C 6,4 C 6,4 km/h (2 Bft) 100,00 %
20.11.2016 16:20 6,3 C 93 % 1009,5 hPa 0,0 l/m 3,8 km/h (1 Bft) O-NO 73 0 min 0,000 mm 0,0 UV-I 8 W/m 5,3 C 6,3 C 4,8 km/h (1 Bft) 100,00 %
20.11.2016 16:22 6,2 C 93 % 1009,5 hPa 0,0 l/m 3,3 km/h (1 Bft) O-NO 73 0 min 0,000 mm 0,0 UV-I 7 W/m 5,2 C 6,2 C 4,8 km/h (1 Bft) 100,00 %
20.11.2016 16:24 6,0 C 93 % 1009,5 hPa 0,0 l/m 4,0 km/h (1 Bft) O-NO 73 0 min 0,000 mm 0,0 UV-I 7 W/m 5,0 C 6,0 C 6,4 km/h (2 Bft) 100,00 %
20.11.2016 16:26 5,8 C 93 % 1009,4 hPa 0,0 l/m 3,3 km/h (1 Bft) O-NO 73 0 min 0,000 mm 0,0 UV-I 6 W/m 4,8 C 5,8 C 4,8 km/h (1 Bft) 98,11 %
20.11.2016 16:28 5,7 C 94 % 1009,5 hPa 0,0 l/m 2,5 km/h (1 Bft) O-NO 73 0 min 0,000 mm 0,0 UV-I 5 W/m 4,8 C 5,7 C 4,8 km/h (1 Bft) 100,00 %
20.11.2016 16:30 5,8 C 95 % 1009,5 hPa 0,0 l/m 3,4 km/h (1 Bft) O-NO 73 0 min 0,000 mm 0,0 UV-I 5 W/m 5,1 C 5,8 C 4,8 km/h (1 Bft) 100,00 %
20.11.2016 16:32 5,8 C 95 % 1009,5 hPa 0,0 l/m 2,7 km/h (1 Bft) O-NO 73 0 min 0,000 mm 0,0 UV-I 5 W/m 5,1 C 5,8 C 4,8 km/h (1 Bft) 100,00 %
20.11.2016 16:34 5,8 C 95 % 1009,5 hPa 0,0 l/m 2,5 km/h (1 Bft) O-NO 73 0 min 0,000 mm 0,0 UV-I 5 W/m 5,1 C 5,8 C 3,2 km/h (1 Bft) 95,74 %
20.11.2016 16:36 5,8 C 94 % 1009,4 hPa 0,0 l/m 2,6 km/h (1 Bft) O-NO 73 0 min 0,000 mm 0,0 UV-I 0 W/m 4,9 C 5,8 C 3,2 km/h (1 Bft) 98,00 %
20.11.2016 16:38 5,7 C 94 % 1009,4 hPa 0,0 l/m 1,9 km/h (1 Bft) O-NO 73 0 min 0,000 mm 0,0 UV-I 0 W/m 4,8 C 5,7 C 3,2 km/h (1 Bft) 97,87 %
20.11.2016 16:40 5,7 C 94 % 1009,4 hPa 0,0 l/m 2,1 km/h (1 Bft) O-NO 73 0 min 0,000 mm 0,0 UV-I 0 W/m 4,8 C 5,7 C 3,2 km/h (1 Bft) 96,00 %
20.11.2016 16:42 5,6 C 94 % 1009,5 hPa 0,0 l/m 2,4 km/h (1 Bft) O-NO 73 0 min 0,000 mm 0,0 UV-I 0 W/m 4,7 C 5,6 C 3,2 km/h (1 Bft) 97,87 %
20.11.2016 16:44 5,6 C 95 % 1009,5 hPa 0,0 l/m 2,7 km/h (1 Bft) O-NO 73 0 min 0,000 mm 0,0 UV-I 0 W/m 4,9 C 5,6 C 3,2 km/h (1 Bft) 94,74 %
20.11.2016 16:46 5,6 C 95 % 1009,5 hPa 0,0 l/m 2,0 km/h (1 Bft) O-NO 73 0 min 0,000 mm 0,0 UV-I 0 W/m 4,9 C 5,6 C 3,2 km/h (1 Bft) 98,00 %
20.11.2016 16:48 5,6 C 95 % 1009,5 hPa 0,0 l/m 1,5 km/h (1 Bft) O-NO 73 0 min 0,000 mm 0,0 UV-I 0 W/m 4,9 C 5,6 C 3,2 km/h (1 Bft) 98,00 %
20.11.2016 16:50 5,7 C 95 % 1009,5 hPa 0,0 l/m 1,6 km/h (1 Bft) O-NO 73 0 min 0,000 mm 0,0 UV-I 0 W/m 5,0 C 5,7 C 3,2 km/h (1 Bft) 97,37 %
20.11.2016 16:52 5,6 C 95 % 1009,5 hPa 0,0 l/m 0,1 km/h (0 Bft) O-NO 73 0 min 0,000 mm 0,0 UV-I 0 W/m 4,9 C 5,6 C 1,6 km/h (1 Bft) 96,00 %
20.11.2016 16:54 5,5 C 95 % 1009,5 hPa 0,0 l/m 0,0 km/h (0 Bft) O-NO 73 0 min 0,000 mm 0,0 UV-I 0 W/m 4,8 C 5,5 C 0,0 km/h (0 Bft) 98,00 %
20.11.2016 16:56 5,4 C 95 % 1009,6 hPa 0,0 l/m 0,6 km/h (0 Bft) O-NO 73 0 min 0,000 mm 0,0 UV-I 0 W/m 4,7 C 5,4 C 1,6 km/h (1 Bft) 96,00 %
20.11.2016 16:58 5,3 C 95 % 1009,7 hPa 0,0 l/m 0,4 km/h (0 Bft) O-NO 73 0 min 0,000 mm 0,0 UV-I 0 W/m 4,6 C 5,3 C 1,6 km/h (1 Bft) 98,00 %
20.11.2016 17:00 5,2 C 95 % 1009,7 hPa 0,0 l/m 1,3 km/h (1 Bft) NO 51 0 min 0,000 mm 0,0 UV-I 0 W/m 4,5 C 5,2 C 3,2 km/h (1 Bft) 92,59 %
20.11.2016 17:02 5,1 C 95 % 1009,7 hPa 0,0 l/m 1,7 km/h (1 Bft) NO 51 0 min 0,000 mm 0,0 UV-I 0 W/m 4,4 C 5,1 C 3,2 km/h (1 Bft) 98,11 %
20.11.2016 17:04 5,0 C 95 % 1009,7 hPa 0,0 l/m 0,7 km/h (0 Bft) NO 51 0 min 0,000 mm 0,0 UV-I 0 W/m 4,3 C 5,0 C 1,6 km/h (1 Bft) 98,36 %
20.11.2016 17:06 4,9 C 95 % 1009,8 hPa 0,0 l/m 0,0 km/h (0 Bft) NO 51 0 min 0,000 mm 0,0 UV-I 0 W/m 4,2 C 4,9 C 0,0 km/h (0 Bft) 97,14 %
20.11.2016 17:08 4,7 C 95 % 1009,8 hPa 0,0 l/m 1,2 km/h (1 Bft) NO 51 0 min 0,000 mm 0,0 UV-I 0 W/m 4,0 C 4,7 C 3,2 km/h (1 Bft) 96,23 %
20.11.2016 17:10 4,4 C 95 % 1009,7 hPa 0,0 l/m 1,9 km/h (1 Bft) NO 51 0 min 0,000 mm 0,0 UV-I 0 W/m 3,7 C 4,4 C 3,2 km/h (1 Bft) 97,56 %
20.11.2016 17:12 4,2 C 95 % 1009,8 hPa 0,0 l/m 0,1 km/h (0 Bft) NO 51 0 min 0,000 mm 0,0 UV-I 0 W/m 3,5 C 4,2 C 1,6 km/h (1 Bft) 97,87 %
20.11.2016 17:14 4,2 C 96 % 1009,7 hPa 0,0 l/m 0,0 km/h (0 Bft) NO 51 0 min 0,000 mm 0,0 UV-I 0 W/m 3,6 C 4,2 C 0,0 km/h (0 Bft) 98,11 %
20.11.2016 17:16 4,3 C 96 % 1009,7 hPa 0,0 l/m 0,7 km/h (0 Bft) NO 51 0 min 0,000 mm 0,0 UV-I 0 W/m 3,7 C 4,3 C 3,2 km/h (1 Bft) 100,00 %
20.11.2016 17:18 4,3 C 96 % 1009,7 hPa 0,0 l/m 2,2 km/h (1 Bft) NO 51 0 min 0,000 mm 0,0 UV-I 0 W/m 3,7 C 4,3 C 3,2 km/h (1 Bft) 95,74 %
20.11.2016 17:20 4,4 C 97 % 1009,7 hPa 0,0 l/m 1,3 km/h (1 Bft) NO 51 0 min 0,000 mm 0,0 UV-I 0 W/m 4,0 C 4,4 C 1,6 km/h (1 Bft) 100,00 %
20.11.2016 17:22 4,4 C 97 % 1009,7 hPa 0,0 l/m 1,2 km/h (1 Bft) NO 51 0 min 0,000 mm 0,0 UV-I 0 W/m 4,0 C 4,4 C 1,6 km/h (1 Bft) 100,00 %
20.11.2016 17:24 4,4 C 97 % 1009,7 hPa 0,0 l/m 1,3 km/h (1 Bft) NO 51 0 min 0,000 mm 0,0 UV-I 0 W/m 4,0 C 4,4 C 1,6 km/h (1 Bft) 100,00 %
20.11.2016 17:26 4,4 C 97 % 1009,7 hPa 0,0 l/m 0,1 km/h (0 Bft) NO 51 0 min 0,000 mm 0,0 UV-I 0 W/m 4,0 C 4,4 C 1,6 km/h (1 Bft) 100,00 %
20.11.2016 17:28 4,4 C 97 % 1009,8 hPa 0,0 l/m 0,0 km/h (0 Bft) NO 51 0 min 0,000 mm 0,0 UV-I 0 W/m 4,0 C 4,4 C 0,0 km/h (0 Bft) 97,56 %
20.11.2016 17:30 4,4 C 97 % 1009,7 hPa 0,0 l/m 1,4 km/h (1 Bft) NO 51 0 min 0,000 mm 0,0 UV-I 0 W/m 4,0 C 4,4 C 3,2 km/h (1 Bft) 100,00 %
20.11.2016 17:32 4,6 C 97 % 1009,7 hPa 0,0 l/m 0,7 km/h (0 Bft) NO 51 0 min 0,000 mm 0,0 UV-I 0 W/m 4,2 C 4,6 C 1,6 km/h (1 Bft) 100,00 %
20.11.2016 17:34 4,6 C 97 % 1009,7 hPa 0,0 l/m 0,1 km/h (0 Bft) NO 51 0 min 0,000 mm 0,0 UV-I 0 W/m 4,2 C 4,6 C 1,6 km/h (1 Bft) 100,00 %
20.11.2016 17:36 4,6 C 97 % 1009,7 hPa 0,0 l/m 1,2 km/h (1 Bft) NO 51 0 min 0,000 mm 0,0 UV-I 0 W/m 4,2 C 4,6 C 3,2 km/h (1 Bft) 100,00 %
20.11.2016 17:38 4,6 C 97 % 1009,7 hPa 0,0 l/m 2,0 km/h (1 Bft) NO 51 0 min 0,000 mm 0,0 UV-I 0 W/m 4,2 C 4,6 C 3,2 km/h (1 Bft) 100,00 %
20.11.2016 17:40 4,4 C 97 % 1009,7 hPa 0,0 l/m 1,6 km/h (1 Bft) NO 51 0 min 0,000 mm 0,0 UV-I 0 W/m 4,0 C 4,4 C 3,2 km/h (1 Bft) 100,00 %
20.11.2016 17:42 4,3 C 97 % 1009,8 hPa 0,0 l/m 1,7 km/h (1 Bft) NO 51 0 min 0,000 mm 0,0 UV-I 0 W/m 3,9 C 4,3 C 3,2 km/h (1 Bft) 100,00 %
20.11.2016 17:44 4,2 C 97 % 1009,7 hPa 0,0 l/m 1,8 km/h (1 Bft) NO 51 0 min 0,000 mm 0,0 UV-I 0 W/m 3,8 C 4,2 C 3,2 km/h (1 Bft) 96,00 %
20.11.2016 17:46 4,1 C 97 % 1009,7 hPa 0,0 l/m 1,0 km/h (0 Bft) NO 51 0 min 0,000 mm 0,0 UV-I 0 W/m 3,7 C 4,1 C 3,2 km/h (1 Bft) 98,11 %
20.11.2016 17:48 4,1 C 97 % 1009,7 hPa 0,0 l/m 2,2 km/h (1 Bft) NO 51 0 min 0,000 mm 0,0 UV-I 0 W/m 3,7 C 4,1 C 3,2 km/h (1 Bft) 100,00 %
20.11.2016 17:50 4,1 C 97 % 1009,8 hPa 0,0 l/m 1,1 km/h (1 Bft) NO 51 0 min 0,000 mm 0,0 UV-I 0 W/m 3,7 C 4,1 C 3,2 km/h (1 Bft) 100,00 %
20.11.2016 17:52 4,0 C 97 % 1009,8 hPa 0,0 l/m 0,1 km/h (0 Bft) NO 51 0 min 0,000 mm 0,0 UV-I 0 W/m 3,6 C 4,0 C 1,6 km/h (1 Bft) 100,00 %
20.11.2016 17:54 3,9 C 97 % 1009,7 hPa 0,0 l/m 0,4 km/h (0 Bft) NO 51 0 min 0,000 mm 0,0 UV-I 0 W/m 3,5 C 3,9 C 1,6 km/h (1 Bft) 98,11 %
20.11.2016 17:56 3,7 C 97 % 1009,8 hPa 0,0 l/m 0,0 km/h (0 Bft) NO 51 0 min 0,000 mm 0,0 UV-I 0 W/m 3,3 C 3,7 C 0,0 km/h (0 Bft) 98,11 %
20.11.2016 17:58 3,7 C 97 % 1009,8 hPa 0,0 l/m 0,3 km/h (0 Bft) NO 51 0 min 0,000 mm 0,0 UV-I 0 W/m 3,3 C 3,7 C 1,6 km/h (1 Bft) 100,00 %
20.11.2016 18:00 3,7 C 97 % 1009,9 hPa 0,0 l/m 0,1 km/h (0 Bft) NO 51 0 min 0,000 mm 0,0 UV-I 0 W/m 3,3 C 3,7 C 1,6 km/h (1 Bft) 95,74 %
20.11.2016 18:02 3,6 C 97 % 1009,9 hPa 0,0 l/m 0,4 km/h (0 Bft) NO 51 0 min 0,000 mm 0,0 UV-I 0 W/m 3,2 C 3,6 C 1,6 km/h (1 Bft) 98,00 %
20.11.2016 18:04 3,5 C 97 % 1009,9 hPa 0,0 l/m 2,2 km/h (1 Bft) NO 51 0 min 0,000 mm 0,0 UV-I 0 W/m 3,1 C 3,5 C 3,2 km/h (1 Bft) 100,00 %
20.11.2016 18:06 3,6 C 97 % 1009,9 hPa 0,0 l/m 1,5 km/h (1 Bft) NO 51 0 min 0,000 mm 0,0 UV-I 0 W/m 3,2 C 3,6 C 3,2 km/h (1 Bft) 97,87 %
20.11.2016 18:08 3,6 C 97 % 1009,9 hPa 0,0 l/m 0,0 km/h (0 Bft) NO 51 0 min 0,000 mm 0,0 UV-I 0 W/m 3,2 C 3,6 C 1,6 km/h (1 Bft) 100,00 %
20.11.2016 18:10 3,5 C 97 % 1009,9 hPa 0,0 l/m 0,2 km/h (0 Bft) NO 51 0 min 0,000 mm 0,0 UV-I 0 W/m 3,1 C 3,5 C 1,6 km/h (1 Bft) 98,11 %
20.11.2016 18:12 3,4 C 97 % 1009,9 hPa 0,0 l/m 0,0 km/h (0 Bft) NO 51 0 min 0,000 mm 0,0 UV-I 0 W/m 3,0 C 3,4 C 0,0 km/h (0 Bft) 97,87 %
20.11.2016 18:14 3,3 C 97 % 1009,9 hPa 0,0 l/m 0,0 km/h (0 Bft) NO 51 0 min 0,000 mm 0,0 UV-I 0 W/m 2,9 C 3,3 C 0,0 km/h (0 Bft) 100,00 %
20.11.2016 18:16 3,1 C 97 % 1010,0 hPa 0,0 l/m 1,1 km/h (1 Bft) NO 51 0 min 0,000 mm 0,0 UV-I 0 W/m 2,7 C 3,1 C 3,2 km/h (1 Bft) 100,00 %
20.11.2016 18:18 3,2 C 97 % 1010,0 hPa 0,0 l/m 1,7 km/h (1 Bft) NO 51 0 min 0,000 mm 0,0 UV-I 0 W/m 2,8 C 3,2 C 3,2 km/h (1 Bft) 98,00 %
20.11.2016 18:20 3,2 C 97 % 1010,0 hPa 0,0 l/m 1,8 km/h (1 Bft) NO 51 0 min 0,000 mm 0,0 UV-I 0 W/m 2,8 C 3,2 C 3,2 km/h (1 Bft) 97,87 %
20.11.2016 18:22 3,2 C 98 % 1010,1 hPa 0,0 l/m 3,3 km/h (1 Bft) S-SO 148 0 min 0,000 mm 0,0 UV-I 0 W/m 2,9 C 3,2 C 4,8 km/h (1 Bft) 97,56 %
20.11.2016 18:24 3,1 C 97 % 1010,1 hPa 0,0 l/m 3,3 km/h (1 Bft) S-SO 148 0 min 0,000 mm 0,0 UV-I 0 W/m 2,7 C 3,1 C 4,8 km/h (1 Bft) 98,31 %
20.11.2016 18:26 3,1 C 97 % 1010,1 hPa 0,0 l/m 3,2 km/h (1 Bft) S-SO 148 0 min 0,000 mm 0,0 UV-I 0 W/m 2,7 C 3,1 C 4,8 km/h (1 Bft) 97,56 %
20.11.2016 18:28 3,1 C 98 % 1010,1 hPa 0,0 l/m 2,8 km/h (1 Bft) S-SO 148 0 min 0,000 mm 0,0 UV-I 0 W/m 2,8 C 3,1 C 4,8 km/h (1 Bft) 95,74 %
20.11.2016 18:30 3,1 C 98 % 1010,1 hPa 0,0 l/m 2,5 km/h (1 Bft) S-SO 148 0 min 0,000 mm 0,0 UV-I 0 W/m 2,8 C 3,1 C 3,2 km/h (1 Bft) 100,00 %
20.11.2016 18:32 3,1 C 98 % 1010,0 hPa 0,0 l/m 0,9 km/h (0 Bft) S-SO 148 0 min 0,000 mm 0,0 UV-I 0 W/m 2,8 C 3,1 C 3,2 km/h (1 Bft) 97,87 %
20.11.2016 18:34 2,9 C 97 % 1010,0 hPa 0,0 l/m 0,0 km/h (0 Bft) S-SO 148 0 min 0,000 mm 0,0 UV-I 0 W/m 2,5 C 2,9 C 0,0 km/h (0 Bft) 100,00 %
20.11.2016 18:36 2,8 C 97 % 1010,1 hPa 0,0 l/m 0,0 km/h (0 Bft) S-SO 148 0 min 0,000 mm 0,0 UV-I 0 W/m 2,4 C 2,8 C 0,0 km/h (0 Bft) 100,00 %
20.11.2016 18:38 2,9 C 98 % 1010,1 hPa 0,0 l/m 0,0 km/h (0 Bft) S-SO 148 0 min 0,000 mm 0,0 UV-I 0 W/m 2,6 C 2,9 C 0,0 km/h (0 Bft) 100,00 %
20.11.2016 18:40 2,9 C 98 % 1010,1 hPa 0,0 l/m 0,0 km/h (0 Bft) S-SO 148 0 min 0,000 mm 0,0 UV-I 0 W/m 2,6 C 2,9 C 0,0 km/h (0 Bft) 100,00 %
20.11.2016 18:42 3,0 C 98 % 1010,1 hPa 0,0 l/m 0,6 km/h (0 Bft) S-SO 148 0 min 0,000 mm 0,0 UV-I 0 W/m 2,7 C 3,0 C 1,6 km/h (1 Bft) 100,00 %
20.11.2016 18:44 3,2 C 98 % 1010,2 hPa 0,0 l/m 2,1 km/h (1 Bft) S-SO 148 0 min 0,000 mm 0,0 UV-I 0 W/m 2,9 C 3,2 C 3,2 km/h (1 Bft) 98,11 %
20.11.2016 18:46 3,1 C 98 % 1010,2 hPa 0,0 l/m 2,5 km/h (1 Bft) S-SO 148 0 min 0,000 mm 0,0 UV-I 0 W/m 2,8 C 3,1 C 4,8 km/h (1 Bft) 95,74 %
20.11.2016 18:48 3,1 C 98 % 1010,2 hPa 0,0 l/m 1,4 km/h (1 Bft) S-SO 148 0 min 0,000 mm 0,0 UV-I 0 W/m 2,8 C 3,1 C 3,2 km/h (1 Bft) 98,00 %
20.11.2016 18:50 3,0 C 98 % 1010,2 hPa 0,0 l/m 0,0 km/h (0 Bft) S-SO 148 0 min 0,000 mm 0,0 UV-I 0 W/m 2,7 C 3,0 C 1,6 km/h (1 Bft) 97,87 %
20.11.2016 18:52 3,0 C 98 % 1010,3 hPa 0,0 l/m 1,5 km/h (1 Bft) S-SO 148 0 min 0,000 mm 0,0 UV-I 0 W/m 2,7 C 3,0 C 3,2 km/h (1 Bft) 100,00 %
20.11.2016 18:54 2,8 C 98 % 1010,3 hPa 0,0 l/m 2,0 km/h (1 Bft) S-SO 148 0 min 0,000 mm 0,0 UV-I 0 W/m 2,5 C 2,8 C 3,2 km/h (1 Bft) 100,00 %
20.11.2016 18:56 2,8 C 98 % 1010,2 hPa 0,0 l/m 1,2 km/h (1 Bft) S-SO 148 0 min 0,000 mm 0,0 UV-I 0 W/m 2,5 C 2,8 C 3,2 km/h (1 Bft) 97,87 %
20.11.2016 18:58 2,9 C 98 % 1010,3 hPa 0,0 l/m 1,4 km/h (1 Bft) S-SO 148 0 min 0,000 mm 0,0 UV-I 0 W/m 2,6 C 2,9 C 4,8 km/h (1 Bft) 95,24 %
20.11.2016 19:00 2,9 C 98 % 1010,3 hPa 0,0 l/m 0,3 km/h (0 Bft) S-SO 148 0 min 0,000 mm 0,0 UV-I 0 W/m 2,6 C 2,9 C 1,6 km/h (1 Bft) 98,00 %
20.11.2016 19:02 2,9 C 98 % 1010,3 hPa 0,0 l/m 0,5 km/h (0 Bft) S-SO 148 0 min 0,000 mm 0,0 UV-I 0 W/m 2,6 C 2,9 C 1,6 km/h (1 Bft) 97,87 %
20.11.2016 19:04 2,9 C 98 % 1010,3 hPa 0,0 l/m 1,8 km/h (1 Bft) S-SO 148 0 min 0,000 mm 0,0 UV-I 0 W/m 2,6 C 2,9 C 3,2 km/h (1 Bft) 98,00 %
20.11.2016 19:06 2,9 C 98 % 1010,3 hPa 0,0 l/m 2,5 km/h (1 Bft) S-SO 148 0 min 0,000 mm 0,0 UV-I 0 W/m 2,6 C 2,9 C 3,2 km/h (1 Bft) 97,87 %
20.11.2016 19:08 2,8 C 98 % 1010,4 hPa 0,0 l/m 1,2 km/h (1 Bft) S-SO 148 0 min 0,000 mm 0,0 UV-I 0 W/m 2,5 C 2,8 C 3,2 km/h (1 Bft) 92,68 %
20.11.2016 19:10 2,8 C 98 % 1010,4 hPa 0,0 l/m 1,0 km/h (0 Bft) S-SO 148 0 min 0,000 mm 0,0 UV-I 0 W/m 2,5 C 2,8 C 4,8 km/h (1 Bft) 94,00 %
20.11.2016 19:12 2,9 C 98 % 1010,4 hPa 0,0 l/m 2,9 km/h (1 Bft) S-SO 148 0 min 0,000 mm 0,0 UV-I 0 W/m 2,6 C 2,9 C 4,8 km/h (1 Bft) 98,11 %
20.11.2016 19:14 2,8 C 98 % 1010,4 hPa 0,0 l/m 2,0 km/h (1 Bft) S-SO 148 0 min 0,000 mm 0,0 UV-I 0 W/m 2,5 C 2,8 C 3,2 km/h (1 Bft) 94,74 %
20.11.2016 19:16 2,8 C 98 % 1010,5 hPa 0,0 l/m 3,8 km/h (1 Bft) S-SO 148 0 min 0,000 mm 0,0 UV-I 0 W/m 2,5 C 2,8 C 4,8 km/h (1 Bft) 98,00 %
20.11.2016 19:18 2,7 C 98 % 1010,5 hPa 0,0 l/m 2,4 km/h (1 Bft) S-SO 148 0 min 0,000 mm 0,0 UV-I 0 W/m 2,4 C 2,7 C 3,2 km/h (1 Bft) 98,00 %
20.11.2016 19:20 2,5 C 98 % 1010,5 hPa 0,0 l/m 2,7 km/h (1 Bft) S-SO 148 0 min 0,000 mm 0,0 UV-I 0 W/m 2,2 C 2,5 C 3,2 km/h (1 Bft) 98,00 %
20.11.2016 19:22 2,5 C 98 % 1010,5 hPa 0,0 l/m 2,8 km/h (1 Bft) S-SO 148 0 min 0,000 mm 0,0 UV-I 0 W/m 2,2 C 2,5 C 4,8 km/h (1 Bft) 97,37 %
20.11.2016 19:24 2,5 C 98 % 1010,5 hPa 0,0 l/m 2,3 km/h (1 Bft) S-SO 148 0 min 0,000 mm 0,0 UV-I 0 W/m 2,2 C 2,5 C 4,8 km/h (1 Bft) 98,11 %
20.11.2016 19:26 2,4 C 98 % 1010,6 hPa 0,0 l/m 4,5 km/h (1 Bft) S-SW 192 0 min 0,000 mm 0,0 UV-I 0 W/m 2,1 C 2,4 C 6,4 km/h (2 Bft) 95,12 %
20.11.2016 19:28 2,3 C 98 % 1010,6 hPa 0,0 l/m 4,7 km/h (1 Bft) S-SW 192 0 min 0,000 mm 0,0 UV-I 0 W/m 2,0 C 2,3 C 6,4 km/h (2 Bft) 94,34 %
20.11.2016 19:30 2,2 C 98 % 1010,6 hPa 0,0 l/m 5,1 km/h (1 Bft) S-SW 194 0 min 0,000 mm 0,0 UV-I 0 W/m 1,9 C 2,2 C 6,4 km/h (2 Bft) 97,87 %
20.11.2016 19:32 2,2 C 98 % 1010,7 hPa 0,0 l/m 4,2 km/h (1 Bft) S-SW 194 0 min 0,000 mm 0,0 UV-I 0 W/m 1,9 C 2,2 C 4,8 km/h (1 Bft) 97,87 %
20.11.2016 19:34 2,2 C 98 % 1010,7 hPa 0,0 l/m 2,0 km/h (1 Bft) S 176 0 min 0,000 mm 0,0 UV-I 0 W/m 1,9 C 2,2 C 3,2 km/h (1 Bft) 95,83 %
20.11.2016 19:36 2,2 C 98 % 1010,6 hPa 0,0 l/m 2,5 km/h (1 Bft) S 176 0 min 0,000 mm 0,0 UV-I 0 W/m 1,9 C 2,2 C 4,8 km/h (1 Bft) 98,44 %
20.11.2016 19:38 2,2 C 98 % 1010,6 hPa 0,0 l/m 1,1 km/h (1 Bft) S 176 0 min 0,000 mm 0,0 UV-I 0 W/m 1,9 C 2,2 C 1,6 km/h (1 Bft) 100,00 %
20.11.2016 19:40 2,3 C 98 % 1010,7 hPa 0,0 l/m 0,7 km/h (0 Bft) S 176 0 min 0,000 mm 0,0 UV-I 0 W/m 2,0 C 2,3 C 1,6 km/h (1 Bft) 97,44 %
20.11.2016 19:42 2,5 C 98 % 1010,6 hPa 0,0 l/m 1,3 km/h (1 Bft) S 176 0 min 0,000 mm 0,0 UV-I 0 W/m 2,2 C 2,5 C 1,6 km/h (1 Bft) 100,00 %
20.11.2016 19:44 2,8 C 98 % 1010,6 hPa 0,0 l/m 2,4 km/h (1 Bft) S 174 0 min 0,000 mm 0,0 UV-I 0 W/m 2,5 C 2,8 C 3,2 km/h (1 Bft) 100,00 %
20.11.2016 19:46 2,9 C 98 % 1010,7 hPa 0,0 l/m 1,6 km/h (1 Bft) S 173 0 min 0,000 mm 0,0 UV-I 0 W/m 2,6 C 2,9 C 3,2 km/h (1 Bft) 100,00 %
20.11.2016 19:48 2,9 C 98 % 1010,7 hPa 0,0 l/m 1,3 km/h (1 Bft) S 173 0 min 0,000 mm 0,0 UV-I 0 W/m 2,6 C 2,9 C 3,2 km/h (1 Bft) 100,00 %
20.11.2016 19:50 2,9 C 98 % 1010,7 hPa 0,0 l/m 2,2 km/h (1 Bft) S 173 0 min 0,000 mm 0,0 UV-I 0 W/m 2,6 C 2,9 C 3,2 km/h (1 Bft) 100,00 %
20.11.2016 19:52 2,8 C 98 % 1010,7 hPa 0,0 l/m 1,9 km/h (1 Bft) S 173 0 min 0,000 mm 0,0 UV-I 0 W/m 2,5 C 2,8 C 3,2 km/h (1 Bft) 97,37 %
20.11.2016 19:54 2,7 C 98 % 1010,7 hPa 0,0 l/m 1,9 km/h (1 Bft) S 172 0 min 0,000 mm 0,0 UV-I 0 W/m 2,4 C 2,7 C 3,2 km/h (1 Bft) 100,00 %
20.11.2016 19:56 2,6 C 98 % 1010,8 hPa 0,0 l/m 2,7 km/h (1 Bft) S 172 0 min 0,000 mm 0,0 UV-I 0 W/m 2,3 C 2,6 C 4,8 km/h (1 Bft) 98,11 %
20.11.2016 19:58 2,7 C 98 % 1010,8 hPa 0,0 l/m 2,3 km/h (1 Bft) S 172 0 min 0,000 mm 0,0 UV-I 0 W/m 2,4 C 2,7 C 3,2 km/h (1 Bft) 100,00 %
20.11.2016 20:00 2,4 C 98 % 1010,8 hPa 0,0 l/m 2,3 km/h (1 Bft) S 172 0 min 0,000 mm 0,0 UV-I 0 W/m 2,1 C 2,4 C 3,2 km/h (1 Bft) 98,00 %
20.11.2016 20:02 2,2 C 98 % 1010,9 hPa 0,0 l/m 3,0 km/h (1 Bft) S 180 0 min 0,000 mm 0,0 UV-I 0 W/m 1,9 C 2,2 C 4,8 km/h (1 Bft) 98,00 %
20.11.2016 20:04 2,2 C 98 % 1010,9 hPa 0,0 l/m 1,9 km/h (1 Bft) S 180 0 min 0,000 mm 0,0 UV-I 0 W/m 1,9 C 2,2 C 4,8 km/h (1 Bft) 100,00 %
20.11.2016 20:06 2,2 C 98 % 1010,8 hPa 0,0 l/m 1,0 km/h (0 Bft) S 180 0 min 0,000 mm 0,0 UV-I 0 W/m 1,9 C 2,2 C 1,6 km/h (1 Bft) 100,00 %
20.11.2016 20:08 2,3 C 98 % 1010,9 hPa 0,0 l/m 1,6 km/h (1 Bft) S 180 0 min 0,000 mm 0,0 UV-I 0 W/m 2,0 C 2,3 C 3,2 km/h (1 Bft) 98,00 %
20.11.2016 20:10 2,4 C 98 % 1010,7 hPa 0,0 l/m 2,0 km/h (1 Bft) S 180 0 min 0,000 mm 0,0 UV-I 0 W/m 2,1 C 2,4 C 3,2 km/h (1 Bft) 100,00 %
20.11.2016 20:12 2,4 C 98 % 1010,8 hPa 0,0 l/m 1,6 km/h (1 Bft) S 176 0 min 0,000 mm 0,0 UV-I 0 W/m 2,1 C 2,4 C 3,2 km/h (1 Bft) 100,00 %
20.11.2016 20:14 2,6 C 98 % 1010,7 hPa 0,0 l/m 3,0 km/h (1 Bft) S-SO 156 0 min 0,000 mm 0,0 UV-I 0 W/m 2,3 C 2,6 C 6,4 km/h (2 Bft) 100,00 %
20.11.2016 20:16 2,8 C 98 % 1010,7 hPa 0,0 l/m 2,0 km/h (1 Bft) S-SO 156 0 min 0,000 mm 0,0 UV-I 0 W/m 2,5 C 2,8 C 3,2 km/h (1 Bft) 100,00 %
20.11.2016 20:18 2,9 C 98 % 1010,7 hPa 0,0 l/m 0,6 km/h (0 Bft) S-SO 156 0 min 0,000 mm 0,0 UV-I 0 W/m 2,6 C 2,9 C 3,2 km/h (1 Bft) 100,00 %
20.11.2016 20:20 2,9 C 98 % 1010,7 hPa 0,0 l/m 0,3 km/h (0 Bft) S-SO 156 0 min 0,000 mm 0,0 UV-I 0 W/m 2,6 C 2,9 C 1,6 km/h (1 Bft) 100,00 %
20.11.2016 20:22 2,6 C 98 % 1010,8 hPa 0,0 l/m 0,8 km/h (0 Bft) S-SO 156 0 min 0,000 mm 0,0 UV-I 0 W/m 2,3 C 2,6 C 3,2 km/h (1 Bft) 98,11 %
20.11.2016 20:24 2,4 C 98 % 1010,9 hPa 0,0 l/m 2,8 km/h (1 Bft) S-SO 156 0 min 0,000 mm 0,0 UV-I 0 W/m 2,1 C 2,4 C 4,8 km/h (1 Bft) 100,00 %
20.11.2016 20:26 2,3 C 98 % 1010,9 hPa 0,0 l/m 3,0 km/h (1 Bft) S-SO 156 0 min 0,000 mm 0,0 UV-I 0 W/m 2,0 C 2,3 C 4,8 km/h (1 Bft) 100,00 %
20.11.2016 20:28 2,2 C 98 % 1010,9 hPa 0,0 l/m 2,9 km/h (1 Bft) S-SO 156 0 min 0,000 mm 0,0 UV-I 0 W/m 1,9 C 2,2 C 4,8 km/h (1 Bft) 100,00 %
20.11.2016 20:30 2,0 C 98 % 1010,9 hPa 0,0 l/m 2,7 km/h (1 Bft) S-SO 156 0 min 0,000 mm 0,0 UV-I 0 W/m 1,7 C 2,0 C 3,2 km/h (1 Bft) 100,00 %
20.11.2016 20:32 1,9 C 98 % 1010,9 hPa 0,0 l/m 3,6 km/h (1 Bft) S-SO 156 0 min 0,000 mm 0,0 UV-I 0 W/m 1,6 C 1,9 C 4,8 km/h (1 Bft) 98,39 %
20.11.2016 20:34 1,8 C 98 % 1010,9 hPa 0,0 l/m 2,7 km/h (1 Bft) S-SO 156 0 min 0,000 mm 0,0 UV-I 0 W/m 1,5 C 1,8 C 4,8 km/h (1 Bft) 100,00 %
20.11.2016 20:36 1,8 C 98 % 1011,0 hPa 0,0 l/m 3,2 km/h (1 Bft) S-SO 156 0 min 0,000 mm 0,0 UV-I 0 W/m 1,5 C 1,8 C 4,8 km/h (1 Bft) 97,87 %
20.11.2016 20:38 1,9 C 98 % 1011,0 hPa 0,0 l/m 3,8 km/h (1 Bft) S-SO 156 0 min 0,000 mm 0,0 UV-I 0 W/m 1,6 C 1,9 C 4,8 km/h (1 Bft) 100,00 %
20.11.2016 20:40 2,1 C 98 % 1011,1 hPa 0,0 l/m 4,0 km/h (1 Bft) S-SO 157 0 min 0,000 mm 0,0 UV-I 0 W/m 1,8 C 2,1 C 4,8 km/h (1 Bft) 100,00 %
20.11.2016 20:42 2,1 C 98 % 1011,1 hPa 0,0 l/m 3,1 km/h (1 Bft) S-SO 157 0 min 0,000 mm 0,0 UV-I 0 W/m 1,8 C 2,1 C 4,8 km/h (1 Bft) 100,00 %
20.11.2016 20:44 2,1 C 98 % 1011,1 hPa 0,0 l/m 4,0 km/h (1 Bft) S-SO 157 0 min 0,000 mm 0,0 UV-I 0 W/m 1,8 C 2,1 C 4,8 km/h (1 Bft) 100,00 %
20.11.2016 20:46 1,9 C 98 % 1011,1 hPa 0,0 l/m 1,8 km/h (1 Bft) S-SO 157 0 min 0,000 mm 0,0 UV-I 0 W/m 1,6 C 1,9 C 4,8 km/h (1 Bft) 100,00 %
20.11.2016 20:48 1,9 C 98 % 1011,1 hPa 0,0 l/m 2,2 km/h (1 Bft) S-SO 157 0 min 0,000 mm 0,0 UV-I 0 W/m 1,6 C 1,9 C 3,2 km/h (1 Bft) 98,00 %
20.11.2016 20:50 2,1 C 98 % 1011,1 hPa 0,0 l/m 1,9 km/h (1 Bft) S-SO 157 0 min 0,000 mm 0,0 UV-I 0 W/m 1,8 C 2,1 C 3,2 km/h (1 Bft) 98,00 %
20.11.2016 20:52 2,2 C 98 % 1011,2 hPa 0,0 l/m 1,4 km/h (1 Bft) S-SO 157 0 min 0,000 mm 0,0 UV-I 0 W/m 1,9 C 2,2 C 3,2 km/h (1 Bft) 100,00 %
20.11.2016 20:54 2,4 C 98 % 1011,2 hPa 0,0 l/m 1,8 km/h (1 Bft) S-SO 157 0 min 0,000 mm 0,0 UV-I 0 W/m 2,1 C 2,4 C 3,2 km/h (1 Bft) 100,00 %
20.11.2016 20:56 2,4 C 99 % 1011,3 hPa 0,0 l/m 1,6 km/h (1 Bft) S-SO 157 0 min 0,000 mm 0,0 UV-I 0 W/m 2,3 C 2,4 C 3,2 km/h (1 Bft) 100,00 %
20.11.2016 20:58 2,1 C 98 % 1011,2 hPa 0,0 l/m 3,3 km/h (1 Bft) S-SO 157 0 min 0,000 mm 0,0 UV-I 0 W/m 1,8 C 2,1 C 4,8 km/h (1 Bft) 100,00 %
20.11.2016 21:00 1,8 C 98 % 1011,2 hPa 0,0 l/m 2,4 km/h (1 Bft) S-SO 157 0 min 0,000 mm 0,0 UV-I 0 W/m 1,5 C 1,8 C 4,8 km/h (1 Bft) 98,00 %
20.11.2016 21:02 1,7 C 98 % 1011,3 hPa 0,0 l/m 3,0 km/h (1 Bft) S-SO 158 0 min 0,000 mm 0,0 UV-I 0 W/m 1,4 C 1,7 C 4,8 km/h (1 Bft) 100,00 %
20.11.2016 21:04 1,6 C 98 % 1011,3 hPa 0,0 l/m 4,0 km/h (1 Bft) S-SW 193 0 min 0,000 mm 0,0 UV-I 0 W/m 1,3 C 1,6 C 6,4 km/h (2 Bft) 100,00 %
20.11.2016 21:06 1,6 C 98 % 1011,3 hPa 0,0 l/m 4,7 km/h (1 Bft) SW 217 0 min 0,000 mm 0,0 UV-I 0 W/m 1,3 C 1,6 C 6,4 km/h (2 Bft) 100,00 %
20.11.2016 21:08 1,6 C 98 % 1011,3 hPa 0,0 l/m 3,8 km/h (1 Bft) SW 221 0 min 0,000 mm 0,0 UV-I 0 W/m 1,3 C 1,6 C 4,8 km/h (1 Bft) 97,37 %
20.11.2016 21:10 1,6 C 98 % 1011,3 hPa 0,0 l/m 3,3 km/h (1 Bft) SW 221 0 min 0,000 mm 0,0 UV-I 0 W/m 1,3 C 1,6 C 4,8 km/h (1 Bft) 100,00 %
20.11.2016 21:12 1,6 C 98 % 1011,2 hPa 0,0 l/m 0,9 km/h (0 Bft) SW 221 0 min 0,000 mm 0,0 UV-I 0 W/m 1,3 C 1,6 C 3,2 km/h (1 Bft) 100,00 %
20.11.2016 21:14 1,7 C 98 % 1011,3 hPa 0,0 l/m 1,0 km/h (0 Bft) SW 221 0 min 0,000 mm 0,0 UV-I 0 W/m 1,4 C 1,7 C 3,2 km/h (1 Bft) 97,37 %
20.11.2016 21:16 1,6 C 98 % 1011,3 hPa 0,0 l/m 2,1 km/h (1 Bft) SW 221 0 min 0,000 mm 0,0 UV-I 0 W/m 1,3 C 1,6 C 3,2 km/h (1 Bft) 97,87 %
20.11.2016 21:18 1,6 C 98 % 1011,3 hPa 0,0 l/m 2,4 km/h (1 Bft) SW 221 0 min 0,000 mm 0,0 UV-I 0 W/m 1,3 C 1,6 C 3,2 km/h (1 Bft) 100,00 %
20.11.2016 21:20 1,6 C 98 % 1011,4 hPa 0,0 l/m 0,5 km/h (0 Bft) SW 221 0 min 0,000 mm 0,0 UV-I 0 W/m 1,3 C 1,6 C 1,6 km/h (1 Bft) 100,00 %
20.11.2016 21:22 1,6 C 98 % 1011,3 hPa 0,0 l/m 1,1 km/h (1 Bft) SW 221 0 min 0,000 mm 0,0 UV-I 0 W/m 1,3 C 1,6 C 1,6 km/h (1 Bft) 97,37 %
20.11.2016 21:24 1,5 C 98 % 1011,3 hPa 0,0 l/m 1,5 km/h (1 Bft) SW 221 0 min 0,000 mm 0,0 UV-I 0 W/m 1,2 C 1,5 C 3,2 km/h (1 Bft) 98,11 %
20.11.2016 21:26 1,6 C 98 % 1011,4 hPa 0,0 l/m 2,8 km/h (1 Bft) SW 221 0 min 0,000 mm 0,0 UV-I 0 W/m 1,3 C 1,6 C 3,2 km/h (1 Bft) 92,59 %
20.11.2016 21:28 1,7 C 98 % 1011,4 hPa 0,0 l/m 3,1 km/h (1 Bft) SW 221 0 min 0,000 mm 0,0 UV-I 0 W/m 1,4 C 1,7 C 4,8 km/h (1 Bft) 97,01 %
20.11.2016 21:30 1,7 C 98 % 1011,4 hPa 0,0 l/m 2,3 km/h (1 Bft) SW 221 0 min 0,000 mm 0,0 UV-I 0 W/m 1,4 C 1,7 C 4,8 km/h (1 Bft) 93,62 %
20.11.2016 21:32 1,8 C 98 % 1011,4 hPa 0,0 l/m 0,4 km/h (0 Bft) SW 221 0 min 0,000 mm 0,0 UV-I 0 W/m 1,5 C 1,8 C 1,6 km/h (1 Bft) 98,00 %
20.11.2016 21:34 1,8 C 98 % 1011,4 hPa 0,0 l/m 1,5 km/h (1 Bft) SW 221 0 min 0,000 mm 0,0 UV-I 0 W/m 1,5 C 1,8 C 3,2 km/h (1 Bft) 95,74 %
20.11.2016 21:36 1,8 C 98 % 1011,4 hPa 0,0 l/m 0,6 km/h (0 Bft) SW 221 0 min 0,000 mm 0,0 UV-I 0 W/m 1,5 C 1,8 C 3,2 km/h (1 Bft) 97,44 %
20.11.2016 21:38 1,8 C 99 % 1011,4 hPa 0,0 l/m 0,0 km/h (0 Bft) SW 221 0 min 0,000 mm 0,0 UV-I 0 W/m 1,7 C 1,8 C 0,0 km/h (0 Bft) 95,74 %
20.11.2016 21:40 1,8 C 99 % 1011,3 hPa 0,0 l/m 0,0 km/h (0 Bft) SW 221 0 min 0,000 mm 0,0 UV-I 0 W/m 1,7 C 1,8 C 0,0 km/h (0 Bft) 98,18 %
20.11.2016 21:42 1,7 C 98 % 1011,3 hPa 0,0 l/m 0,0 km/h (0 Bft) SW 221 0 min 0,000 mm 0,0 UV-I 0 W/m 1,4 C 1,7 C 1,6 km/h (1 Bft) 97,44 %
20.11.2016 21:44 1,6 C 98 % 1011,4 hPa 0,0 l/m 1,9 km/h (1 Bft) SW 221 0 min 0,000 mm 0,0 UV-I 0 W/m 1,3 C 1,6 C 3,2 km/h (1 Bft) 97,87 %
20.11.2016 21:46 1,6 C 98 % 1011,4 hPa 0,0 l/m 3,2 km/h (1 Bft) SW 221 0 min 0,000 mm 0,0 UV-I 0 W/m 1,3 C 1,6 C 4,8 km/h (1 Bft) 95,74 %
20.11.2016 21:48 1,5 C 98 % 1011,4 hPa 0,0 l/m 4,1 km/h (1 Bft) SW 221 0 min 0,000 mm 0,0 UV-I 0 W/m 1,2 C 1,5 C 4,8 km/h (1 Bft) 95,74 %
20.11.2016 21:50 1,4 C 98 % 1011,5 hPa 0,0 l/m 3,3 km/h (1 Bft) SW 221 0 min 0,000 mm 0,0 UV-I 0 W/m 1,1 C 1,4 C 4,8 km/h (1 Bft) 98,00 %
20.11.2016 21:52 1,3 C 98 % 1011,5 hPa 0,0 l/m 2,6 km/h (1 Bft) SW 221 0 min 0,000 mm 0,0 UV-I 0 W/m 1,0 C 1,3 C 3,2 km/h (1 Bft) 97,87 %
20.11.2016 21:54 1,2 C 98 % 1011,5 hPa 0,0 l/m 3,5 km/h (1 Bft) SW 221 0 min 0,000 mm 0,0 UV-I 0 W/m 0,9 C 1,2 C 4,8 km/h (1 Bft) 97,14 %
20.11.2016 21:56 1,3 C 98 % 1011,6 hPa 0,0 l/m 3,0 km/h (1 Bft) SW 221 0 min 0,000 mm 0,0 UV-I 0 W/m 1,0 C 1,3 C 3,2 km/h (1 Bft) 98,21 %
20.11.2016 21:58 1,3 C 98 % 1011,6 hPa 0,0 l/m 3,5 km/h (1 Bft) SW 221 0 min 0,000 mm 0,0 UV-I 0 W/m 1,0 C 1,3 C 4,8 km/h (1 Bft) 95,74 %
20.11.2016 22:00 1,2 C 98 % 1011,6 hPa 0,0 l/m 4,3 km/h (1 Bft) SW 221 0 min 0,000 mm 0,0 UV-I 0 W/m 0,9 C 1,2 C 4,8 km/h (1 Bft) 98,00 %
20.11.2016 22:02 1,2 C 98 % 1011,6 hPa 0,0 l/m 3,5 km/h (1 Bft) SW 221 0 min 0,000 mm 0,0 UV-I 0 W/m 0,9 C 1,2 C 4,8 km/h (1 Bft) 100,00 %
20.11.2016 22:04 1,0 C 98 % 1011,6 hPa 0,0 l/m 4,1 km/h (1 Bft) SW 221 0 min 0,000 mm 0,0 UV-I 0 W/m 0,7 C 1,0 C 6,4 km/h (2 Bft) 95,74 %
20.11.2016 22:06 0,8 C 98 % 1011,6 hPa 0,0 l/m 2,2 km/h (1 Bft) SW 221 0 min 0,000 mm 0,0 UV-I 0 W/m 0,5 C 0,8 C 3,2 km/h (1 Bft) 100,00 %
20.11.2016 22:08 0,7 C 98 % 1011,6 hPa 0,0 l/m 1,8 km/h (1 Bft) SW 221 0 min 0,000 mm 0,0 UV-I 0 W/m 0,4 C 0,7 C 3,2 km/h (1 Bft) 100,00 %
20.11.2016 22:10 0,7 C 98 % 1011,6 hPa 0,0 l/m 2,8 km/h (1 Bft) SW 221 0 min 0,000 mm 0,0 UV-I 0 W/m 0,4 C 0,7 C 4,8 km/h (1 Bft) 100,00 %
20.11.2016 22:12 0,8 C 98 % 1011,7 hPa 0,0 l/m 1,8 km/h (1 Bft) SW 221 0 min 0,000 mm 0,0 UV-I 0 W/m 0,5 C 0,8 C 3,2 km/h (1 Bft) 97,87 %
20.11.2016 22:14 1,0 C 98 % 1011,7 hPa 0,0 l/m 2,2 km/h (1 Bft) SW 221 0 min 0,000 mm 0,0 UV-I 0 W/m 0,7 C 1,0 C 4,8 km/h (1 Bft) 100,00 %
20.11.2016 22:16 1,2 C 98 % 1011,7 hPa 0,0 l/m 3,6 km/h (1 Bft) SW 221 0 min 0,000 mm 0,0 UV-I 0 W/m 0,9 C 1,2 C 4,8 km/h (1 Bft) 100,00 %
20.11.2016 22:18 1,2 C 99 % 1011,8 hPa 0,0 l/m 3,7 km/h (1 Bft) SW 221 0 min 0,000 mm 0,0 UV-I 0 W/m 1,1 C 1,2 C 4,8 km/h (1 Bft) 100,00 %
20.11.2016 22:20 1,2 C 99 % 1011,8 hPa 0,0 l/m 2,4 km/h (1 Bft) SW 221 0 min 0,000 mm 0,0 UV-I 0 W/m 1,1 C 1,2 C 4,8 km/h (1 Bft) 100,00 %
20.11.2016 22:22 1,1 C 98 % 1011,8 hPa 0,0 l/m 2,5 km/h (1 Bft) SW 221 0 min 0,000 mm 0,0 UV-I 0 W/m 0,8 C 1,1 C 3,2 km/h (1 Bft) 100,00 %
20.11.2016 22:24 1,0 C 98 % 1011,8 hPa 0,0 l/m 4,2 km/h (1 Bft) SW 221 0 min 0,000 mm 0,0 UV-I 0 W/m 0,7 C 1,0 C 4,8 km/h (1 Bft) 100,00 %
20.11.2016 22:26 0,9 C 98 % 1011,9 hPa 0,0 l/m 3,9 km/h (1 Bft) SW 221 0 min 0,000 mm 0,0 UV-I 0 W/m 0,6 C 0,9 C 4,8 km/h (1 Bft) 100,00 %
20.11.2016 22:28 0,9 C 98 % 1011,8 hPa 0,0 l/m 3,2 km/h (1 Bft) SW 221 0 min 0,000 mm 0,0 UV-I 0 W/m 0,6 C 0,9 C 4,8 km/h (1 Bft) 100,00 %
20.11.2016 22:30 0,8 C 98 % 1011,8 hPa 0,0 l/m 2,1 km/h (1 Bft) SW 214 0 min 0,000 mm 0,0 UV-I 0 W/m 0,5 C 0,8 C 3,2 km/h (1 Bft) 100,00 %
20.11.2016 22:32 0,7 C 98 % 1011,9 hPa 0,0 l/m 1,7 km/h (1 Bft) S 178 0 min 0,000 mm 0,0 UV-I 0 W/m 0,4 C 0,7 C 3,2 km/h (1 Bft) 97,06 %
20.11.2016 22:34 0,8 C 98 % 1011,8 hPa 0,0 l/m 1,5 km/h (1 Bft) S 178 0 min 0,000 mm 0,0 UV-I 0 W/m 0,5 C 0,8 C 3,2 km/h (1 Bft) 100,00 %
20.11.2016 22:36 1,0 C 98 % 1011,9 hPa 0,0 l/m 2,8 km/h (1 Bft) S 178 0 min 0,000 mm 0,0 UV-I 0 W/m 0,7 C 1,0 C 4,8 km/h (1 Bft) 100,00 %
20.11.2016 22:38 1,2 C 99 % 1011,8 hPa 0,0 l/m 2,8 km/h (1 Bft) S 178 0 min 0,000 mm 0,0 UV-I 0 W/m 1,1 C 1,2 C 4,8 km/h (1 Bft) 97,56 %
20.11.2016 22:40 1,4 C 98 % 1011,8 hPa 0,0 l/m 1,7 km/h (1 Bft) S 178 0 min 0,000 mm 0,0 UV-I 0 W/m 1,1 C 1,4 C 3,2 km/h (1 Bft) 100,00 %
20.11.2016 22:42 1,4 C 98 % 1011,8 hPa 0,0 l/m 2,0 km/h (1 Bft) S 178 0 min 0,000 mm 0,0 UV-I 0 W/m 1,1 C 1,4 C 3,2 km/h (1 Bft) 100,00 %
20.11.2016 22:44 1,4 C 98 % 1011,8 hPa 0,0 l/m 1,8 km/h (1 Bft) S 178 0 min 0,000 mm 0,0 UV-I 0 W/m 1,1 C 1,4 C 3,2 km/h (1 Bft) 100,00 %
20.11.2016 22:46 1,4 C 99 % 1011,8 hPa 0,0 l/m 1,9 km/h (1 Bft) S 178 0 min 0,000 mm 0,0 UV-I 0 W/m 1,3 C 1,4 C 3,2 km/h (1 Bft) 100,00 %
20.11.2016 22:48 1,4 C 98 % 1011,8 hPa 0,0 l/m 0,6 km/h (0 Bft) S 178 0 min 0,000 mm 0,0 UV-I 0 W/m 1,1 C 1,4 C 1,6 km/h (1 Bft) 100,00 %
20.11.2016 22:50 1,2 C 99 % 1011,9 hPa 0,0 l/m 1,4 km/h (1 Bft) S 178 0 min 0,000 mm 0,0 UV-I 0 W/m 1,1 C 1,2 C 3,2 km/h (1 Bft) 100,00 %
20.11.2016 22:52 1,1 C 99 % 1011,8 hPa 0,0 l/m 1,2 km/h (1 Bft) S 178 0 min 0,000 mm 0,0 UV-I 0 W/m 1,0 C 1,1 C 3,2 km/h (1 Bft) 98,08 %
20.11.2016 22:54 1,1 C 98 % 1011,9 hPa 0,0 l/m 1,8 km/h (1 Bft) S 178 0 min 0,000 mm 0,0 UV-I 0 W/m 0,8 C 1,1 C 3,2 km/h (1 Bft) 100,00 %
20.11.2016 22:56 1,0 C 98 % 1011,9 hPa 0,0 l/m 2,2 km/h (1 Bft) S 178 0 min 0,000 mm 0,0 UV-I 0 W/m 0,7 C 1,0 C 3,2 km/h (1 Bft) 100,00 %
20.11.2016 22:58 0,8 C 98 % 1011,9 hPa 0,0 l/m 2,8 km/h (1 Bft) S 178 0 min 0,000 mm 0,0 UV-I 0 W/m 0,5 C 0,8 C 4,8 km/h (1 Bft) 100,00 %
20.11.2016 23:00 0,7 C 98 % 1011,9 hPa 0,0 l/m 2,7 km/h (1 Bft) S 178 0 min 0,000 mm 0,0 UV-I 0 W/m 0,4 C 0,7 C 4,8 km/h (1 Bft) 100,00 %
20.11.2016 23:02 0,6 C 98 % 1011,8 hPa 0,0 l/m 2,7 km/h (1 Bft) S 178 0 min 0,000 mm 0,0 UV-I 0 W/m 0,3 C 0,6 C 4,8 km/h (1 Bft) 100,00 %
20.11.2016 23:04 0,6 C 98 % 1011,8 hPa 0,0 l/m 2,7 km/h (1 Bft) S 178 0 min 0,000 mm 0,0 UV-I 0 W/m 0,3 C 0,6 C 3,2 km/h (1 Bft) 98,00 %
20.11.2016 23:06 0,6 C 98 % 1011,8 hPa 0,0 l/m 4,5 km/h (1 Bft) S 178 0 min 0,000 mm 0,0 UV-I 0 W/m 0,3 C 0,6 C 4,8 km/h (1 Bft) 100,00 %
20.11.2016 23:08 0,6 C 98 % 1011,8 hPa 0,0 l/m 3,4 km/h (1 Bft) S 178 0 min 0,000 mm 0,0 UV-I 0 W/m 0,3 C 0,6 C 4,8 km/h (1 Bft) 100,00 %
20.11.2016 23:10 0,6 C 98 % 1011,8 hPa 0,0 l/m 1,6 km/h (1 Bft) S 178 0 min 0,000 mm 0,0 UV-I 0 W/m 0,3 C 0,6 C 3,2 km/h (1 Bft) 100,00 %
20.11.2016 23:12 0,5 C 98 % 1011,9 hPa 0,0 l/m 1,5 km/h (1 Bft) S 178 0 min 0,000 mm 0,0 UV-I 0 W/m 0,2 C 0,5 C 3,2 km/h (1 Bft) 98,00 %
20.11.2016 23:14 0,7 C 98 % 1012,0 hPa 0,0 l/m 1,8 km/h (1 Bft) S 178 0 min 0,000 mm 0,0 UV-I 0 W/m 0,4 C 0,7 C 3,2 km/h (1 Bft) 98,00 %
20.11.2016 23:16 0,9 C 98 % 1012,0 hPa 0,0 l/m 4,3 km/h (1 Bft) S 180 0 min 0,000 mm 0,0 UV-I 0 W/m 0,6 C 0,9 C 6,4 km/h (2 Bft) 100,00 %
20.11.2016 23:18 1,2 C 98 % 1012,0 hPa 0,0 l/m 4,3 km/h (1 Bft) S 185 0 min 0,000 mm 0,0 UV-I 0 W/m 0,9 C 1,2 C 4,8 km/h (1 Bft) 100,00 %
20.11.2016 23:20 1,3 C 99 % 1011,9 hPa 0,0 l/m 1,9 km/h (1 Bft) S 185 0 min 0,000 mm 0,0 UV-I 0 W/m 1,2 C 1,3 C 3,2 km/h (1 Bft) 97,87 %
20.11.2016 23:22 1,2 C 98 % 1011,9 hPa 0,0 l/m 1,8 km/h (1 Bft) S 184 0 min 0,000 mm 0,0 UV-I 0 W/m 0,9 C 1,2 C 3,2 km/h (1 Bft) 97,56 %
20.11.2016 23:24 1,2 C 98 % 1012,0 hPa 0,0 l/m 0,8 km/h (0 Bft) S 185 0 min 0,000 mm 0,0 UV-I 0 W/m 0,9 C 1,2 C 1,6 km/h (1 Bft) 98,21 %
20.11.2016 23:26 1,3 C 99 % 1012,0 hPa 0,0 l/m 0,6 km/h (0 Bft) S 185 0 min 0,000 mm 0,0 UV-I 0 W/m 1,2 C 1,3 C 1,6 km/h (1 Bft) 100,00 %
20.11.2016 23:28 1,4 C 99 % 1012,0 hPa 0,0 l/m 0,8 km/h (0 Bft) S 184 0 min 0,000 mm 0,0 UV-I 0 W/m 1,3 C 1,4 C 1,6 km/h (1 Bft) 98,00 %
20.11.2016 23:30 1,4 C 99 % 1011,9 hPa 0,0 l/m 0,3 km/h (0 Bft) S 184 0 min 0,000 mm 0,0 UV-I 0 W/m 1,3 C 1,4 C 1,6 km/h (1 Bft) 100,00 %
20.11.2016 23:32 1,4 C 99 % 1011,9 hPa 0,0 l/m 0,8 km/h (0 Bft) S 184 0 min 0,000 mm 0,0 UV-I 0 W/m 1,3 C 1,4 C 1,6 km/h (1 Bft) 97,87 %
20.11.2016 23:34 1,3 C 99 % 1011,8 hPa 0,0 l/m 1,0 km/h (0 Bft) S 184 0 min 0,000 mm 0,0 UV-I 0 W/m 1,2 C 1,3 C 3,2 km/h (1 Bft) 100,00 %
20.11.2016 23:36 1,2 C 99 % 1011,7 hPa 0,0 l/m 2,8 km/h (1 Bft) S 184 0 min 0,000 mm 0,0 UV-I 0 W/m 1,1 C 1,2 C 4,8 km/h (1 Bft) 100,00 %
20.11.2016 23:38 1,2 C 98 % 1011,8 hPa 0,0 l/m 3,7 km/h (1 Bft) S 184 0 min 0,000 mm 0,0 UV-I 0 W/m 0,9 C 1,2 C 4,8 km/h (1 Bft) 100,00 %
20.11.2016 23:40 1,2 C 98 % 1011,9 hPa 0,0 l/m 0,9 km/h (0 Bft) S 184 0 min 0,000 mm 0,0 UV-I 0 W/m 0,9 C 1,2 C 3,2 km/h (1 Bft) 98,11 %
20.11.2016 23:42 1,3 C 99 % 1012,0 hPa 0,0 l/m 0,6 km/h (0 Bft) S 184 0 min 0,000 mm 0,0 UV-I 0 W/m 1,2 C 1,3 C 1,6 km/h (1 Bft) 98,00 %
20.11.2016 23:44 1,4 C 99 % 1012,0 hPa 0,0 l/m 0,3 km/h (0 Bft) S 184 0 min 0,000 mm 0,0 UV-I 0 W/m 1,3 C 1,4 C 1,6 km/h (1 Bft) 95,74 %
20.11.2016 23:46 1,3 C 99 % 1011,9 hPa 0,0 l/m 0,7 km/h (0 Bft) S 184 0 min 0,000 mm 0,0 UV-I 0 W/m 1,2 C 1,3 C 1,6 km/h (1 Bft) 100,00 %
20.11.2016 23:48 1,1 C 98 % 1011,9 hPa 0,0 l/m 1,4 km/h (1 Bft) S 184 0 min 0,000 mm 0,0 UV-I 0 W/m 0,8 C 1,1 C 3,2 km/h (1 Bft) 96,00 %
20.11.2016 23:50 0,8 C 98 % 1011,9 hPa 0,0 l/m 2,7 km/h (1 Bft) S 171 0 min 0,000 mm 0,0 UV-I 0 W/m 0,5 C 0,8 C 3,2 km/h (1 Bft) 97,56 %
20.11.2016 23:52 0,7 C 98 % 1012,0 hPa 0,0 l/m 1,8 km/h (1 Bft) S 171 0 min 0,000 mm 0,0 UV-I 0 W/m 0,4 C 0,7 C 3,2 km/h (1 Bft) 94,00 %
20.11.2016 23:54 0,8 C 98 % 1012,0 hPa 0,0 l/m 1,8 km/h (1 Bft) S 171 0 min 0,000 mm 0,0 UV-I 0 W/m 0,5 C 0,8 C 3,2 km/h (1 Bft) 98,00 %
20.11.2016 23:56 0,8 C 98 % 1011,9 hPa 0,0 l/m 1,2 km/h (1 Bft) S 171 0 min 0,000 mm 0,0 UV-I 0 W/m 0,5 C 0,8 C 3,2 km/h (1 Bft) 97,87 %
20.11.2016 23:58 0,8 C 98 % 1011,8 hPa 0,0 l/m 0,0 km/h (0 Bft) S 171 0 min 0,000 mm 0,0 UV-I 0 W/m 0,5 C 0,8 C 0,0 km/h (0 Bft) 98,00 %
_ Min-Zeit 08:05 14:58 14:24 - 06:30 - - - - - - 08:05 05:45 10:38 00:05
Minimum _ 0,1 C 89 % 1009,4 hPa - 0,0 km/h (0 Bft) - - - - - - -0,2 C -0,7 C 0,0 km/h (0 Bft) 56,14 %
_ Max-Zeit 15:04 10:08 00:00 14:28 14:26 - - 07:30 13:00 12:14 12:38 14:44 15:06 14:26 00:10
Maximum _ 7,9 C 99 % 1014,3 hPa 0,2 l/m 14,6 km/h
O-NO (3 Bft)
- - 5 min 0,102 mm 0,7 UV-I 394 W/m 6,3 C 7,9 C 17,7 km/h
O-NO (3 Bft)
100,00 %
Durchschnitt _ 2,8 C 97 % 1010,9 hPa #0,2 l/m 3,3 km/h (1 Bft) O-NO - #3:53 h #0,483 mm 0,5 UV-I 127 W/m 2,3 C 2,7 C 5,8 km/h (2 Bft) 98,64 %